Wetterdaten: Montag, 08.02.2016
Datum Zeit Temp. Aussen Temp. o. S. +5cm Feuchte Auss BlattFeu 1 Luftdruck Regen Sonnenschein Regendauer Solar Windben Empfang
08.02.2016 00:00 7,3 C 7,2 C 5,6 C 76 % 0 lf 999,9 hPa 0,0 l/m 0 min 0 min 0 W/m 52,3 km/h (7 Bft) 93,62 %
08.02.2016 00:02 7,3 C 7,2 C 5,6 C 76 % 0 lf 999,8 hPa 0,0 l/m 0 min 0 min 0 W/m 31,4 km/h (5 Bft) 90,62 %
08.02.2016 00:06 7,3 C 7,2 C 5,6 C 76 % 0 lf 999,7 hPa 0,0 l/m 0 min 0 min 0 W/m 39,7 km/h (6 Bft) 96,08 %
08.02.2016 00:08 7,3 C 7,2 C 5,6 C 76 % 0 lf 999,7 hPa 0,0 l/m 0 min 0 min 0 W/m 31,4 km/h (5 Bft) 96,00 %
08.02.2016 00:10 7,3 C 7,2 C 5,6 C 76 % 0 lf 999,7 hPa 0,0 l/m 0 min 0 min 0 W/m 29,3 km/h (5 Bft) 91,43 %
08.02.2016 00:12 7,3 C 7,2 C 5,6 C 76 % 0 lf 999,6 hPa 0,0 l/m 0 min 0 min 0 W/m 25,1 km/h (4 Bft) 96,61 %
08.02.2016 00:14 7,3 C 7,2 C 5,6 C 76 % 0 lf 999,6 hPa 0,0 l/m 0 min 0 min 0 W/m 23,0 km/h (4 Bft) 97,14 %
08.02.2016 00:16 7,3 C 7,2 C 5,6 C 76 % 0 lf 999,5 hPa 0,0 l/m 0 min 0 min 0 W/m 27,2 km/h (4 Bft) 94,34 %
08.02.2016 00:18 7,3 C 7,2 C 5,6 C 76 % 0 lf 999,6 hPa 0,0 l/m 0 min 0 min 0 W/m 35,6 km/h (5 Bft) 88,00 %
08.02.2016 00:20 7,3 C 7,2 C 5,6 C 76 % 0 lf 999,4 hPa 0,0 l/m 0 min 0 min 0 W/m 27,2 km/h (4 Bft) 91,49 %
08.02.2016 00:22 7,3 C 7,2 C 5,6 C 77 % 0 lf 999,4 hPa 0,0 l/m 0 min 0 min 0 W/m 29,3 km/h (5 Bft) 93,88 %
08.02.2016 00:24 7,2 C 7,2 C 5,6 C 77 % 0 lf 999,3 hPa 0,0 l/m 0 min 0 min 0 W/m 43,9 km/h (6 Bft) 93,62 %
08.02.2016 00:26 7,2 C 7,2 C 5,6 C 77 % 0 lf 999,3 hPa 0,0 l/m 0 min 0 min 0 W/m 31,4 km/h (5 Bft) 91,30 %
08.02.2016 00:28 7,3 C 7,2 C 5,6 C 77 % 0 lf 999,2 hPa 0,0 l/m 0 min 0 min 0 W/m 27,2 km/h (4 Bft) 95,74 %
08.02.2016 00:30 7,3 C 7,2 C 5,6 C 77 % 0 lf 999,1 hPa 0,0 l/m 0 min 0 min 0 W/m 27,2 km/h (4 Bft) 97,87 %
08.02.2016 00:32 7,3 C 7,2 C 5,6 C 77 % 0 lf 999,0 hPa 0,0 l/m 0 min 0 min 0 W/m 23,0 km/h (4 Bft) 93,62 %
08.02.2016 00:34 7,2 C 7,2 C 5,6 C 77 % 0 lf 998,8 hPa 0,0 l/m 0 min 0 min 0 W/m 37,7 km/h (5 Bft) 97,14 %
08.02.2016 00:36 7,2 C 7,2 C 5,6 C 77 % 0 lf 998,8 hPa 0,0 l/m 0 min 0 min 0 W/m 33,5 km/h (5 Bft) 89,36 %
08.02.2016 00:38 7,2 C 7,2 C 5,6 C 77 % 0 lf 998,7 hPa 0,0 l/m 0 min 0 min 0 W/m 39,7 km/h (6 Bft) 95,74 %
08.02.2016 00:40 7,2 C 7,2 C 5,6 C 77 % 0 lf 998,6 hPa 0,0 l/m 0 min 0 min 0 W/m 25,1 km/h (4 Bft) 95,65 %
08.02.2016 00:42 7,2 C 7,2 C 5,6 C 77 % 0 lf 998,6 hPa 0,0 l/m 0 min 0 min 0 W/m 39,7 km/h (6 Bft) 89,36 %
08.02.2016 00:44 7,2 C 7,2 C 5,6 C 77 % 0 lf 998,4 hPa 0,0 l/m 0 min 0 min 0 W/m 29,3 km/h (5 Bft) 94,44 %
08.02.2016 00:46 7,2 C 7,2 C 5,6 C 77 % 0 lf 998,4 hPa 0,0 l/m 0 min 0 min 0 W/m 31,4 km/h (5 Bft) 95,92 %
08.02.2016 00:48 7,2 C 7,2 C 5,6 C 77 % 0 lf 998,4 hPa 0,0 l/m 0 min 0 min 0 W/m 29,3 km/h (5 Bft) 95,92 %
08.02.2016 00:50 7,2 C 7,2 C 5,6 C 77 % 0 lf 998,5 hPa 0,0 l/m 0 min 0 min 0 W/m 33,5 km/h (5 Bft) 95,74 %
08.02.2016 00:52 7,2 C 7,2 C 5,6 C 77 % 0 lf 998,3 hPa 0,0 l/m 0 min 0 min 0 W/m 25,1 km/h (4 Bft) 93,62 %
08.02.2016 00:54 7,2 C 7,2 C 5,6 C 77 % 0 lf 998,4 hPa 0,0 l/m 0 min 0 min 0 W/m 27,2 km/h (4 Bft) 88,57 %
08.02.2016 00:56 7,2 C 7,2 C 5,6 C 77 % 0 lf 998,2 hPa 0,0 l/m 0 min 0 min 0 W/m 37,7 km/h (5 Bft) 93,62 %
08.02.2016 00:58 7,2 C 7,2 C 5,6 C 77 % 0 lf 998,1 hPa 0,0 l/m 0 min 0 min 0 W/m 29,3 km/h (5 Bft) 92,45 %
08.02.2016 01:00 7,2 C 7,2 C 5,6 C 77 % 0 lf 998,0 hPa 0,0 l/m 0 min 0 min 0 W/m 41,8 km/h (6 Bft) 89,36 %
08.02.2016 01:02 7,2 C 7,2 C 5,6 C 77 % 0 lf 998,1 hPa 0,0 l/m 0 min 0 min 0 W/m 23,0 km/h (4 Bft) 96,00 %
08.02.2016 01:04 7,2 C 7,2 C 5,6 C 77 % 0 lf 997,9 hPa 0,0 l/m 0 min 0 min 0 W/m 27,2 km/h (4 Bft) 95,92 %
08.02.2016 01:06 7,2 C 7,2 C 5,6 C 77 % 0 lf 998,0 hPa 0,0 l/m 0 min 0 min 0 W/m 18,8 km/h (3 Bft) 94,29 %
08.02.2016 01:08 7,2 C 7,2 C 5,6 C 77 % 0 lf 997,8 hPa 0,0 l/m 0 min 0 min 0 W/m 31,4 km/h (5 Bft) 96,30 %
08.02.2016 01:10 7,2 C 7,8 C 6,1 C 77 % 0 lf 997,9 hPa 0,0 l/m 0 min 0 min 0 W/m 39,7 km/h (6 Bft) 93,48 %
08.02.2016 01:12 7,3 C 7,8 C 6,1 C 77 % 0 lf 997,8 hPa 0,0 l/m 0 min 0 min 0 W/m 29,3 km/h (5 Bft) 97,87 %
08.02.2016 01:14 7,3 C 7,8 C 6,1 C 77 % 0 lf 997,8 hPa 0,0 l/m 0 min 0 min 0 W/m 29,3 km/h (5 Bft) 97,87 %
08.02.2016 01:16 7,3 C 7,8 C 6,1 C 77 % 0 lf 997,8 hPa 0,0 l/m 0 min 0 min 0 W/m 39,7 km/h (6 Bft) 94,00 %
08.02.2016 01:18 7,3 C 7,8 C 6,1 C 76 % 0 lf 997,7 hPa 0,0 l/m 0 min 0 min 0 W/m 25,1 km/h (4 Bft) 95,92 %
08.02.2016 01:20 7,4 C 7,8 C 6,1 C 76 % 0 lf 997,7 hPa 0,0 l/m 0 min 0 min 0 W/m 25,1 km/h (4 Bft) 97,87 %
08.02.2016 01:22 7,4 C 7,8 C 6,1 C 76 % 0 lf 997,7 hPa 0,0 l/m 0 min 0 min 0 W/m 25,1 km/h (4 Bft) 97,87 %
08.02.2016 01:24 7,4 C 7,8 C 6,1 C 76 % 0 lf 997,8 hPa 0,0 l/m 0 min 0 min 0 W/m 23,0 km/h (4 Bft) 97,83 %
08.02.2016 01:26 7,4 C 7,8 C 6,1 C 76 % 0 lf 997,7 hPa 0,0 l/m 0 min 0 min 0 W/m 41,8 km/h (6 Bft) 94,29 %
08.02.2016 01:28 7,4 C 7,8 C 6,1 C 76 % 0 lf 997,6 hPa 0,0 l/m 0 min 0 min 0 W/m 29,3 km/h (5 Bft) 91,49 %
08.02.2016 01:30 7,4 C 7,8 C 6,1 C 76 % 0 lf 997,6 hPa 0,0 l/m 0 min 0 min 0 W/m 25,1 km/h (4 Bft) 98,15 %
08.02.2016 01:32 7,4 C 7,8 C 6,1 C 76 % 0 lf 997,7 hPa 0,0 l/m 0 min 0 min 0 W/m 43,9 km/h (6 Bft) 95,92 %
08.02.2016 01:34 7,5 C 7,8 C 6,1 C 76 % 0 lf 997,5 hPa 0,0 l/m 0 min 0 min 0 W/m 35,6 km/h (5 Bft) 100,00 %
08.02.2016 01:36 7,5 C 7,8 C 6,1 C 76 % 0 lf 997,4 hPa 0,0 l/m 0 min 0 min 0 W/m 39,7 km/h (6 Bft) 97,87 %
08.02.2016 01:38 7,5 C 7,8 C 6,1 C 75 % 0 lf 997,2 hPa 0,0 l/m 0 min 0 min 0 W/m 29,3 km/h (5 Bft) 97,14 %
08.02.2016 01:40 7,6 C 7,8 C 6,1 C 75 % 0 lf 997,1 hPa 0,0 l/m 0 min 0 min 0 W/m 27,2 km/h (4 Bft) 100,00 %
08.02.2016 01:42 7,6 C 7,8 C 6,1 C 76 % 0 lf 997,1 hPa 0,0 l/m 0 min 0 min 0 W/m 41,8 km/h (6 Bft) 97,87 %
08.02.2016 01:44 7,6 C 7,8 C 6,1 C 76 % 0 lf 997,1 hPa 0,0 l/m 0 min 0 min 0 W/m 29,3 km/h (5 Bft) 95,65 %
08.02.2016 01:46 7,6 C 7,8 C 6,1 C 75 % 0 lf 997,1 hPa 0,0 l/m 0 min 0 min 0 W/m 39,7 km/h (6 Bft) 98,00 %
08.02.2016 01:48 7,7 C 7,8 C 6,7 C 75 % 0 lf 997,1 hPa 0,0 l/m 0 min 0 min 0 W/m 48,1 km/h (6 Bft) 97,87 %
08.02.2016 01:50 7,7 C 7,8 C 6,7 C 75 % 0 lf 997,0 hPa 0,0 l/m 0 min 0 min 0 W/m 31,4 km/h (5 Bft) 97,87 %
08.02.2016 01:52 7,7 C 8,3 C 6,7 C 75 % 0 lf 996,9 hPa 0,0 l/m 0 min 0 min 0 W/m 33,5 km/h (5 Bft) 97,87 %
08.02.2016 01:54 7,7 C 8,3 C 6,7 C 75 % 0 lf 996,9 hPa 0,0 l/m 0 min 0 min 0 W/m 39,7 km/h (6 Bft) 95,92 %
08.02.2016 01:56 7,8 C 8,3 C 6,7 C 75 % 0 lf 996,8 hPa 0,0 l/m 0 min 0 min 0 W/m 33,5 km/h (5 Bft) 100,00 %
08.02.2016 01:58 7,8 C 8,3 C 6,7 C 75 % 0 lf 996,7 hPa 0,0 l/m 0 min 0 min 0 W/m 27,2 km/h (4 Bft) 97,87 %
08.02.2016 02:00 7,8 C 8,3 C 6,7 C 75 % 0 lf 996,8 hPa 0,0 l/m 0 min 0 min 0 W/m 29,3 km/h (5 Bft) 94,34 %
08.02.2016 02:02 7,8 C 8,3 C 6,7 C 75 % 0 lf 996,9 hPa 0,0 l/m 0 min 2 min 0 W/m 52,3 km/h (7 Bft) 97,87 %
08.02.2016 02:04 7,8 C 8,3 C 6,7 C 75 % 0 lf 996,7 hPa 0,0 l/m 0 min 0 min 0 W/m 35,6 km/h (5 Bft) 98,00 %
08.02.2016 02:06 7,9 C 8,3 C 6,7 C 75 % 0 lf 996,8 hPa 0,0 l/m 0 min 2 min 0 W/m 35,6 km/h (5 Bft) 95,92 %
08.02.2016 02:08 7,9 C 8,3 C 6,7 C 75 % 0 lf 996,7 hPa 0,0 l/m 0 min 0 min 0 W/m 31,4 km/h (5 Bft) 100,00 %
08.02.2016 02:10 7,9 C 8,3 C 6,7 C 75 % 0 lf 996,6 hPa 0,0 l/m 0 min 0 min 0 W/m 27,2 km/h (4 Bft) 98,11 %
08.02.2016 02:12 7,9 C 8,3 C 6,7 C 75 % 0 lf 996,6 hPa 0,0 l/m 0 min 0 min 0 W/m 29,3 km/h (5 Bft) 98,00 %
08.02.2016 02:14 7,9 C 8,3 C 6,7 C 75 % 0 lf 996,6 hPa 0,0 l/m 0 min 0 min 0 W/m 50,2 km/h (7 Bft) 97,96 %
08.02.2016 02:16 8,0 C 8,3 C 6,7 C 75 % 0 lf 996,5 hPa 0,0 l/m 0 min 0 min 0 W/m 39,7 km/h (6 Bft) 94,29 %
08.02.2016 02:18 8,0 C 8,3 C 6,7 C 75 % 1 lf 996,6 hPa 0,0 l/m 0 min 0 min 0 W/m 41,8 km/h (6 Bft) 94,44 %
08.02.2016 02:20 8,0 C 8,3 C 6,7 C 75 % 1 lf 996,5 hPa 0,0 l/m 0 min 2 min 0 W/m 50,2 km/h (7 Bft) 100,00 %
08.02.2016 02:22 8,1 C 8,3 C 6,7 C 75 % 0 lf 996,5 hPa 0,0 l/m 0 min 2 min 0 W/m 39,7 km/h (6 Bft) 100,00 %
08.02.2016 02:24 8,1 C 8,3 C 6,7 C 75 % 0 lf 996,5 hPa 0,0 l/m 0 min 0 min 0 W/m 29,3 km/h (5 Bft) 97,87 %
08.02.2016 02:26 8,1 C 8,3 C 6,7 C 75 % 0 lf 996,5 hPa 0,0 l/m 0 min 0 min 0 W/m 41,8 km/h (6 Bft) 97,96 %
08.02.2016 02:28 8,2 C 8,3 C 6,7 C 75 % 0 lf 996,5 hPa 0,0 l/m 0 min 0 min 0 W/m 41,8 km/h (6 Bft) 100,00 %
08.02.2016 02:30 8,2 C 8,3 C 6,7 C 75 % 0 lf 996,3 hPa 0,0 l/m 0 min 0 min 0 W/m 35,6 km/h (5 Bft) 100,00 %
08.02.2016 02:32 8,2 C 8,3 C 6,7 C 75 % 0 lf 996,2 hPa 0,0 l/m 0 min 0 min 0 W/m 29,3 km/h (5 Bft) 100,00 %
08.02.2016 02:34 8,2 C 8,3 C 6,7 C 75 % 0 lf 996,2 hPa 0,0 l/m 0 min 0 min 0 W/m 37,7 km/h (5 Bft) 96,00 %
08.02.2016 02:36 8,2 C 8,3 C 6,7 C 75 % 0 lf 996,2 hPa 0,0 l/m 0 min 0 min 0 W/m 25,1 km/h (4 Bft) 97,96 %
08.02.2016 02:38 8,3 C 8,3 C 6,7 C 75 % 0 lf 996,1 hPa 0,0 l/m 0 min 0 min 0 W/m 33,5 km/h (5 Bft) 100,00 %
08.02.2016 02:40 8,3 C 8,3 C 6,7 C 75 % 0 lf 996,1 hPa 0,0 l/m 0 min 0 min 0 W/m 37,7 km/h (5 Bft) 100,00 %
08.02.2016 02:42 8,3 C 8,9 C 7,2 C 75 % 0 lf 995,9 hPa 0,0 l/m 0 min 0 min 0 W/m 37,7 km/h (5 Bft) 97,87 %
08.02.2016 02:44 8,3 C 8,9 C 7,2 C 75 % 0 lf 996,2 hPa 0,0 l/m 0 min 0 min 0 W/m 50,2 km/h (7 Bft) 100,00 %
08.02.2016 02:46 8,4 C 8,3 C 7,2 C 75 % 1 lf 996,1 hPa 0,0 l/m 0 min 0 min 0 W/m 41,8 km/h (6 Bft) 100,00 %
08.02.2016 02:48 8,4 C 7,8 C 6,7 C 75 % 1 lf 996,0 hPa 0,0 l/m 0 min 2 min 0 W/m 46,0 km/h (6 Bft) 97,83 %
08.02.2016 02:50 8,4 C 6,7 C 5,6 C 77 % 2 lf 996,0 hPa 0,0 l/m 0 min 2 min 0 W/m 46,0 km/h (6 Bft) 98,21 %
08.02.2016 02:52 8,4 C 6,7 C 5,6 C 78 % 1 lf 995,9 hPa 0,0 l/m 0 min 2 min 0 W/m 18,8 km/h (3 Bft) 100,00 %
08.02.2016 02:54 8,4 C 6,7 C 5,6 C 78 % 1 lf 995,9 hPa 0,0 l/m 0 min 2 min 0 W/m 37,7 km/h (5 Bft) 100,00 %
08.02.2016 02:56 8,4 C 6,7 C 5,6 C 79 % 3 lf 995,8 hPa 0,0 l/m 0 min 2 min 0 W/m 41,8 km/h (6 Bft) 100,00 %
08.02.2016 02:58 8,4 C 6,7 C 5,6 C 79 % 3 lf 995,7 hPa 0,0 l/m 0 min 2 min 0 W/m 35,6 km/h (5 Bft) 100,00 %
08.02.2016 03:00 8,3 C 6,7 C 5,6 C 79 % 2 lf 995,8 hPa 0,2 l/m 0 min 2 min 0 W/m 35,6 km/h (5 Bft) 100,00 %
08.02.2016 03:02 8,3 C 6,7 C 5,6 C 79 % 0 lf 995,7 hPa 0,0 l/m 0 min 2 min 0 W/m 33,5 km/h (5 Bft) 95,74 %
08.02.2016 03:04 8,3 C 7,2 C 5,6 C 79 % 0 lf 995,8 hPa 0,0 l/m 0 min 2 min 0 W/m 35,6 km/h (5 Bft) 100,00 %
08.02.2016 03:06 8,3 C 7,8 C 6,1 C 79 % 0 lf 995,6 hPa 0,0 l/m 0 min 2 min 0 W/m 31,4 km/h (5 Bft) 100,00 %
08.02.2016 03:08 8,3 C 7,8 C 6,1 C 79 % 1 lf 995,6 hPa 0,0 l/m 0 min 2 min 0 W/m 41,8 km/h (6 Bft) 100,00 %
08.02.2016 03:10 8,3 C 7,8 C 6,1 C 79 % 2 lf 995,6 hPa 0,0 l/m 0 min 2 min 0 W/m 33,5 km/h (5 Bft) 93,10 %
08.02.2016 03:12 8,3 C 7,8 C 6,1 C 79 % 1 lf 995,6 hPa 0,0 l/m 0 min 2 min 0 W/m 23,0 km/h (4 Bft) 100,00 %
08.02.2016 03:14 8,3 C 8,3 C 6,1 C 79 % 0 lf 995,5 hPa 0,0 l/m 0 min 2 min 0 W/m 46,0 km/h (6 Bft) 100,00 %
08.02.2016 03:16 8,3 C 8,3 C 6,1 C 79 % 0 lf 995,4 hPa 0,0 l/m 0 min 2 min 0 W/m 41,8 km/h (6 Bft) 98,28 %
08.02.2016 03:18 8,3 C 8,3 C 6,7 C 79 % 0 lf 995,4 hPa 0,0 l/m 0 min 2 min 0 W/m 43,9 km/h (6 Bft) 95,74 %
08.02.2016 03:20 8,4 C 8,3 C 6,7 C 79 % 0 lf 995,3 hPa 0,0 l/m 0 min 2 min 0 W/m 41,8 km/h (6 Bft) 88,89 %
08.02.2016 03:22 8,4 C 8,3 C 6,7 C 79 % 0 lf 995,2 hPa 0,0 l/m 0 min 2 min 0 W/m 35,6 km/h (5 Bft) 94,83 %
08.02.2016 03:24 8,4 C 8,3 C 6,7 C 79 % 0 lf 995,4 hPa 0,0 l/m 0 min 2 min 0 W/m 41,8 km/h (6 Bft) 85,71 %
08.02.2016 03:26 8,4 C 8,9 C 7,2 C 79 % 0 lf 995,2 hPa 0,0 l/m 0 min 2 min 0 W/m 54,4 km/h (7 Bft) 92,73 %
08.02.2016 03:28 8,5 C 8,9 C 7,2 C 79 % 5 lf 995,2 hPa 0,0 l/m 0 min 2 min 0 W/m 46,0 km/h (6 Bft) 92,00 %
08.02.2016 03:30 8,5 C 8,9 C 6,7 C 79 % 1 lf 995,2 hPa 0,0 l/m 0 min 2 min 0 W/m 50,2 km/h (7 Bft) 91,67 %
08.02.2016 03:32 8,6 C 8,9 C 6,7 C 79 % 0 lf 995,1 hPa 0,0 l/m 0 min 2 min 0 W/m 35,6 km/h (5 Bft) 94,29 %
08.02.2016 03:34 8,6 C 8,9 C 6,7 C 79 % 0 lf 995,3 hPa 0,0 l/m 0 min 2 min 0 W/m 50,2 km/h (7 Bft) 90,74 %
08.02.2016 03:36 8,6 C 8,9 C 6,7 C 79 % 0 lf 995,0 hPa 0,0 l/m 0 min 2 min 0 W/m 35,6 km/h (5 Bft) 92,00 %
08.02.2016 03:38 8,6 C 8,9 C 7,2 C 79 % 0 lf 994,9 hPa 0,0 l/m 0 min 2 min 0 W/m 46,0 km/h (6 Bft) 89,58 %
08.02.2016 03:40 8,6 C 8,9 C 7,2 C 80 % 0 lf 994,8 hPa 0,0 l/m 0 min 2 min 0 W/m 29,3 km/h (5 Bft) 91,43 %
08.02.2016 03:42 8,6 C 8,9 C 7,2 C 80 % 0 lf 994,6 hPa 0,0 l/m 0 min 2 min 0 W/m 33,5 km/h (5 Bft) 92,59 %
08.02.2016 03:44 8,7 C 8,9 C 7,2 C 80 % 0 lf 994,5 hPa 0,0 l/m 0 min 2 min 0 W/m 39,7 km/h (6 Bft) 92,00 %
08.02.2016 03:46 8,7 C 8,9 C 7,2 C 80 % 0 lf 994,5 hPa 0,0 l/m 0 min 2 min 0 W/m 41,8 km/h (6 Bft) 89,58 %
08.02.2016 03:48 8,6 C 8,9 C 7,2 C 80 % 0 lf 994,5 hPa 0,0 l/m 0 min 2 min 0 W/m 29,3 km/h (5 Bft) 88,57 %
08.02.2016 03:50 8,6 C 8,9 C 7,2 C 80 % 0 lf 994,4 hPa 0,0 l/m 0 min 2 min 0 W/m 33,5 km/h (5 Bft) 90,91 %
08.02.2016 03:52 8,6 C 8,9 C 7,2 C 80 % 0 lf 994,3 hPa 0,0 l/m 0 min 2 min 0 W/m 46,0 km/h (6 Bft) 91,84 %
08.02.2016 03:54 8,6 C 8,9 C 7,2 C 80 % 0 lf 994,2 hPa 0,0 l/m 0 min 0 min 0 W/m 35,6 km/h (5 Bft) 89,80 %
08.02.2016 03:56 8,7 C 8,9 C 7,2 C 80 % 0 lf 994,2 hPa 0,0 l/m 0 min 0 min 0 W/m 39,7 km/h (6 Bft) 88,57 %
08.02.2016 03:58 8,6 C 8,9 C 7,2 C 80 % 0 lf 994,1 hPa 0,0 l/m 0 min 0 min 0 W/m 50,2 km/h (7 Bft) 88,89 %
08.02.2016 04:00 8,6 C 8,9 C 7,2 C 80 % 0 lf 994,1 hPa 0,0 l/m 0 min 0 min 0 W/m 31,4 km/h (5 Bft) 88,00 %
08.02.2016 04:05 8,6 C 8,9 C 7,2 C 80 % 0 lf 994,0 hPa 0,0 l/m 0 min 0 min 0 W/m 29,3 km/h (5 Bft) 90,00 %
08.02.2016 04:06 8,6 C 8,9 C 7,2 C 80 % 0 lf 994,0 hPa 0,0 l/m 0 min 0 min 0 W/m 43,9 km/h (6 Bft) 91,30 %
08.02.2016 04:08 8,6 C 8,9 C 7,2 C 81 % 0 lf 994,0 hPa 0,0 l/m 0 min 0 min 0 W/m 41,8 km/h (6 Bft) 97,87 %
08.02.2016 04:10 8,6 C 8,9 C 7,2 C 81 % 0 lf 994,0 hPa 0,0 l/m 0 min 0 min 0 W/m 46,0 km/h (6 Bft) 95,74 %
08.02.2016 04:12 8,7 C 8,9 C 7,2 C 81 % 0 lf 994,0 hPa 0,0 l/m 0 min 0 min 0 W/m 35,6 km/h (5 Bft) 95,74 %
08.02.2016 04:14 8,7 C 8,9 C 7,2 C 81 % 0 lf 994,0 hPa 0,0 l/m 0 min 0 min 0 W/m 52,3 km/h (7 Bft) 97,87 %
08.02.2016 04:16 8,7 C 8,9 C 7,2 C 81 % 0 lf 994,1 hPa 0,0 l/m 0 min 0 min 0 W/m 43,9 km/h (6 Bft) 95,65 %
08.02.2016 04:18 8,7 C 8,9 C 7,2 C 81 % 0 lf 993,9 hPa 0,0 l/m 0 min 0 min 0 W/m 35,6 km/h (5 Bft) 95,74 %
08.02.2016 04:20 8,7 C 8,9 C 7,2 C 81 % 0 lf 993,8 hPa 0,0 l/m 0 min 0 min 0 W/m 41,8 km/h (6 Bft) 97,87 %
08.02.2016 04:22 8,7 C 8,9 C 7,2 C 81 % 1 lf 993,9 hPa 0,0 l/m 0 min 0 min 0 W/m 33,5 km/h (5 Bft) 95,74 %
08.02.2016 04:24 8,7 C 8,9 C 7,2 C 81 % 1 lf 993,7 hPa 0,0 l/m 0 min 2 min 0 W/m 31,4 km/h (5 Bft) 95,74 %
08.02.2016 04:26 8,7 C 8,9 C 7,2 C 81 % 1 lf 993,6 hPa 0,0 l/m 0 min 2 min 0 W/m 41,8 km/h (6 Bft) 97,87 %
08.02.2016 04:28 8,7 C 8,3 C 7,2 C 81 % 0 lf 993,7 hPa 0,0 l/m 0 min 2 min 0 W/m 58,6 km/h (7 Bft) 95,65 %
08.02.2016 04:30 8,7 C 8,9 C 7,2 C 81 % 0 lf 993,7 hPa 0,0 l/m 0 min 2 min 0 W/m 37,7 km/h (5 Bft) 97,87 %
08.02.2016 04:32 8,7 C 8,9 C 7,2 C 81 % 0 lf 993,6 hPa 0,0 l/m 0 min 2 min 0 W/m 41,8 km/h (6 Bft) 97,87 %
08.02.2016 04:34 8,7 C 8,9 C 7,2 C 81 % 0 lf 993,6 hPa 0,0 l/m 0 min 0 min 0 W/m 43,9 km/h (6 Bft) 100,00 %
08.02.2016 04:36 8,7 C 8,9 C 7,2 C 81 % 0 lf 993,5 hPa 0,0 l/m 0 min 0 min 0 W/m 37,7 km/h (5 Bft) 100,00 %
08.02.2016 04:38 8,7 C 8,9 C 7,2 C 81 % 0 lf 993,6 hPa 0,0 l/m 0 min 0 min 0 W/m 33,5 km/h (5 Bft) 97,83 %
08.02.2016 04:40 8,7 C 8,9 C 7,2 C 81 % 0 lf 993,6 hPa 0,0 l/m 0 min 0 min 0 W/m 39,7 km/h (6 Bft) 97,87 %
08.02.2016 04:42 8,7 C 8,9 C 7,2 C 81 % 0 lf 993,5 hPa 0,0 l/m 0 min 0 min 0 W/m 46,0 km/h (6 Bft) 97,87 %
08.02.2016 04:44 8,7 C 8,9 C 7,2 C 81 % 0 lf 993,6 hPa 0,0 l/m 0 min 0 min 0 W/m 31,4 km/h (5 Bft) 100,00 %
08.02.2016 04:46 8,7 C 8,9 C 7,2 C 81 % 0 lf 993,5 hPa 0,0 l/m 0 min 0 min 0 W/m 27,2 km/h (4 Bft) 97,87 %
08.02.2016 04:48 8,7 C 8,9 C 7,2 C 81 % 0 lf 993,3 hPa 0,0 l/m 0 min 0 min 0 W/m 35,6 km/h (5 Bft) 97,87 %
08.02.2016 04:50 8,7 C 8,9 C 7,2 C 81 % 0 lf 993,2 hPa 0,0 l/m 0 min 0 min 0 W/m 31,4 km/h (5 Bft) 97,87 %
08.02.2016 04:52 8,7 C 8,9 C 7,2 C 81 % 0 lf 993,3 hPa 0,0 l/m 0 min 0 min 0 W/m 41,8 km/h (6 Bft) 100,00 %
08.02.2016 04:54 8,7 C 8,9 C 7,2 C 81 % 0 lf 993,3 hPa 0,0 l/m 0 min 0 min 0 W/m 43,9 km/h (6 Bft) 100,00 %
08.02.2016 04:56 8,7 C 8,3 C 7,2 C 81 % 3 lf 993,2 hPa 0,0 l/m 0 min 2 min 0 W/m 41,8 km/h (6 Bft) 95,74 %
08.02.2016 04:58 8,7 C 7,8 C 7,2 C 81 % 1 lf 993,1 hPa 0,0 l/m 0 min 2 min 0 W/m 31,4 km/h (5 Bft) 97,87 %
08.02.2016 05:00 8,7 C 7,8 C 6,7 C 82 % 1 lf 993,0 hPa 0,0 l/m 0 min 2 min 0 W/m 37,7 km/h (5 Bft) 97,87 %
08.02.2016 05:02 8,7 C 8,3 C 6,7 C 82 % 0 lf 993,0 hPa 0,0 l/m 0 min 2 min 0 W/m 33,5 km/h (5 Bft) 95,65 %
08.02.2016 05:04 8,7 C 8,3 C 6,7 C 82 % 0 lf 992,9 hPa 0,0 l/m 0 min 2 min 0 W/m 35,6 km/h (5 Bft) 97,87 %
08.02.2016 05:06 8,7 C 8,3 C 6,7 C 82 % 0 lf 993,0 hPa 0,0 l/m 0 min 2 min 0 W/m 48,1 km/h (6 Bft) 100,00 %
08.02.2016 05:08 8,7 C 8,3 C 6,7 C 82 % 3 lf 992,9 hPa 0,0 l/m 0 min 2 min 0 W/m 31,4 km/h (5 Bft) 100,00 %
08.02.2016 05:10 8,7 C 7,2 C 6,1 C 83 % 10 lf 993,0 hPa 0,0 l/m 0 min 2 min 0 W/m 35,6 km/h (5 Bft) 100,00 %
08.02.2016 05:12 8,7 C 7,2 C 6,1 C 83 % 12 lf 993,4 hPa 0,0 l/m 0 min 2 min 0 W/m 43,9 km/h (6 Bft) 100,00 %
08.02.2016 05:14 8,6 C 6,7 C 6,1 C 84 % 15 lf 992,9 hPa 0,2 l/m 0 min 2 min 0 W/m 41,8 km/h (6 Bft) 100,00 %
08.02.2016 05:16 8,6 C 6,7 C 5,6 C 84 % 15 lf 993,0 hPa 0,0 l/m 0 min 2 min 0 W/m 39,7 km/h (6 Bft) 100,00 %
08.02.2016 05:18 8,6 C 6,7 C 5,6 C 85 % 15 lf 992,9 hPa 0,0 l/m 0 min 2 min 0 W/m 35,6 km/h (5 Bft) 100,00 %
08.02.2016 05:20 8,5 C 6,7 C 5,6 C 85 % 15 lf 992,8 hPa 0,2 l/m 0 min 2 min 0 W/m 27,2 km/h (4 Bft) 95,74 %
08.02.2016 05:22 8,4 C 6,7 C 5,6 C 86 % 15 lf 992,7 hPa 0,0 l/m 0 min 2 min 0 W/m 35,6 km/h (5 Bft) 100,00 %
08.02.2016 05:24 8,4 C 6,7 C 5,6 C 87 % 15 lf 992,8 hPa 0,2 l/m 0 min 2 min 0 W/m 46,0 km/h (6 Bft) 97,87 %
08.02.2016 05:26 8,3 C 6,7 C 5,6 C 87 % 15 lf 992,4 hPa 0,0 l/m 0 min 2 min 0 W/m 39,7 km/h (6 Bft) 97,83 %
08.02.2016 05:28 8,3 C 6,7 C 5,6 C 88 % 15 lf 992,3 hPa 0,2 l/m 0 min 2 min 0 W/m 29,3 km/h (5 Bft) 97,87 %
08.02.2016 05:30 8,2 C 6,7 C 5,6 C 88 % 15 lf 992,1 hPa 0,0 l/m 0 min 2 min 0 W/m 29,3 km/h (5 Bft) 95,74 %
08.02.2016 05:32 8,2 C 6,7 C 5,6 C 88 % 15 lf 992,0 hPa 0,2 l/m 0 min 2 min 0 W/m 33,5 km/h (5 Bft) 95,74 %
08.02.2016 05:34 8,1 C 6,7 C 5,6 C 89 % 15 lf 992,0 hPa 0,0 l/m 0 min 2 min 0 W/m 31,4 km/h (5 Bft) 97,87 %
08.02.2016 05:36 8,1 C 6,7 C 5,6 C 89 % 15 lf 992,0 hPa 0,0 l/m 0 min 2 min 0 W/m 33,5 km/h (5 Bft) 93,62 %
08.02.2016 05:38 8,1 C 6,7 C 5,6 C 89 % 15 lf 992,0 hPa 0,2 l/m 0 min 2 min 0 W/m 20,9 km/h (4 Bft) 95,65 %
08.02.2016 05:40 8,1 C 6,7 C 5,6 C 89 % 15 lf 991,9 hPa 0,0 l/m 0 min 2 min 0 W/m 33,5 km/h (5 Bft) 95,74 %
08.02.2016 05:42 8,0 C 7,2 C 5,6 C 89 % 15 lf 991,8 hPa 0,0 l/m 0 min 2 min 0 W/m 41,8 km/h (6 Bft) 95,74 %
08.02.2016 05:44 7,9 C 7,2 C 5,6 C 90 % 15 lf 991,8 hPa 0,0 l/m 0 min 2 min 0 W/m 31,4 km/h (5 Bft) 97,87 %
08.02.2016 05:46 7,9 C 7,2 C 5,6 C 90 % 15 lf 991,8 hPa 0,0 l/m 0 min 2 min 0 W/m 35,6 km/h (5 Bft) 95,74 %
08.02.2016 05:48 7,9 C 7,2 C 5,6 C 90 % 15 lf 991,8 hPa 0,0 l/m 0 min 2 min 0 W/m 27,2 km/h (4 Bft) 97,87 %
08.02.2016 05:50 7,9 C 7,2 C 5,6 C 90 % 15 lf 991,8 hPa 0,2 l/m 0 min 2 min 0 W/m 31,4 km/h (5 Bft) 97,83 %
08.02.2016 05:52 7,9 C 7,2 C 5,6 C 91 % 15 lf 991,7 hPa 0,0 l/m 0 min 2 min 0 W/m 35,6 km/h (5 Bft) 97,87 %
08.02.2016 05:54 7,9 C 7,2 C 5,6 C 91 % 15 lf 991,6 hPa 0,2 l/m 0 min 2 min 0 W/m 37,7 km/h (5 Bft) 93,62 %
08.02.2016 05:56 7,9 C 7,2 C 5,6 C 91 % 15 lf 991,6 hPa 0,0 l/m 0 min 2 min 0 W/m 37,7 km/h (5 Bft) 97,87 %
08.02.2016 05:58 7,9 C 7,2 C 5,6 C 91 % 15 lf 991,6 hPa 0,0 l/m 0 min 2 min 0 W/m 35,6 km/h (5 Bft) 97,87 %
08.02.2016 06:00 7,9 C 7,2 C 5,6 C 91 % 15 lf 991,6 hPa 0,0 l/m 0 min 0 min 0 W/m 27,2 km/h (4 Bft) 100,00 %
08.02.2016 06:02 7,9 C 7,2 C 5,6 C 91 % 15 lf 991,4 hPa 0,0 l/m 0 min 2 min 0 W/m 33,5 km/h (5 Bft) 97,87 %
08.02.2016 06:04 7,9 C 7,2 C 6,1 C 92 % 15 lf 991,3 hPa 0,0 l/m 0 min 2 min 0 W/m 37,7 km/h (5 Bft) 95,83 %
08.02.2016 06:06 7,9 C 7,2 C 6,1 C 92 % 15 lf 991,3 hPa 0,0 l/m 0 min 2 min 0 W/m 25,1 km/h (4 Bft) 97,87 %
08.02.2016 06:08 7,9 C 7,2 C 6,1 C 92 % 15 lf 991,3 hPa 0,0 l/m 0 min 2 min 0 W/m 41,8 km/h (6 Bft) 95,74 %
08.02.2016 06:10 7,9 C 7,2 C 6,1 C 92 % 15 lf 991,3 hPa 0,0 l/m 0 min 2 min 0 W/m 37,7 km/h (5 Bft) 95,74 %
08.02.2016 06:12 8,0 C 7,2 C 6,1 C 92 % 15 lf 991,4 hPa 0,0 l/m 0 min 2 min 0 W/m 35,6 km/h (5 Bft) 93,48 %
08.02.2016 06:14 8,0 C 7,2 C 6,1 C 92 % 15 lf 991,1 hPa 0,0 l/m 0 min 2 min 0 W/m 33,5 km/h (5 Bft) 97,87 %
08.02.2016 06:16 8,0 C 7,2 C 6,1 C 92 % 15 lf 991,1 hPa 0,0 l/m 0 min 2 min 0 W/m 43,9 km/h (6 Bft) 95,74 %
08.02.2016 06:18 8,1 C 7,2 C 6,1 C 92 % 15 lf 991,0 hPa 0,0 l/m 0 min 2 min 0 W/m 41,8 km/h (6 Bft) 95,74 %
08.02.2016 06:20 8,1 C 7,2 C 6,1 C 92 % 15 lf 991,1 hPa 0,0 l/m 0 min 2 min 0 W/m 46,0 km/h (6 Bft) 95,74 %
08.02.2016 06:22 8,1 C 7,8 C 6,1 C 92 % 15 lf 991,1 hPa 0,0 l/m 0 min 2 min 0 W/m 39,7 km/h (6 Bft) 95,74 %
08.02.2016 06:24 8,1 C 7,8 C 6,1 C 92 % 14 lf 991,1 hPa 0,0 l/m 0 min 2 min 0 W/m 33,5 km/h (5 Bft) 91,30 %
08.02.2016 06:26 8,1 C 7,8 C 6,1 C 92 % 14 lf 991,1 hPa 0,0 l/m 0 min 2 min 0 W/m 35,6 km/h (5 Bft) 95,74 %
08.02.2016 06:28 8,2 C 7,8 C 6,1 C 92 % 13 lf 990,8 hPa 0,0 l/m 0 min 2 min 0 W/m 29,3 km/h (5 Bft) 89,36 %
08.02.2016 06:30 8,2 C 7,8 C 6,1 C 92 % 12 lf 990,8 hPa 0,0 l/m 0 min 2 min 0 W/m 41,8 km/h (6 Bft) 95,74 %
08.02.2016 06:32 8,2 C 7,8 C 6,1 C 92 % 9 lf 990,8 hPa 0,0 l/m 0 min 2 min 0 W/m 33,5 km/h (5 Bft) 89,36 %
08.02.2016 06:34 8,3 C 7,8 C 6,1 C 92 % 6 lf 990,8 hPa 0,0 l/m 0 min 2 min 0 W/m 35,6 km/h (5 Bft) 95,74 %
08.02.2016 06:36 8,3 C 7,8 C 6,1 C 92 % 4 lf 990,8 hPa 0,0 l/m 0 min 2 min 0 W/m 31,4 km/h (5 Bft) 95,65 %
08.02.2016 06:38 8,3 C 7,8 C 6,1 C 91 % 3 lf 990,8 hPa 0,0 l/m 0 min 2 min 0 W/m 29,3 km/h (5 Bft) 93,62 %
08.02.2016 06:40 8,4 C 7,8 C 6,1 C 91 % 2 lf 990,8 hPa 0,0 l/m 0 min 2 min 0 W/m 33,5 km/h (5 Bft) 93,62 %
08.02.2016 06:42 8,4 C 7,8 C 6,7 C 91 % 1 lf 990,6 hPa 0,0 l/m 0 min 2 min 0 W/m 35,6 km/h (5 Bft) 95,74 %
08.02.2016 06:44 8,5 C 8,3 C 6,7 C 91 % 0 lf 990,6 hPa 0,0 l/m 0 min 2 min 0 W/m 35,6 km/h (5 Bft) 91,49 %
08.02.2016 06:46 8,6 C 8,3 C 6,7 C 91 % 0 lf 990,7 hPa 0,0 l/m 0 min 2 min 0 W/m 31,4 km/h (5 Bft) 95,74 %
08.02.2016 06:48 8,7 C 8,3 C 6,7 C 90 % 0 lf 990,7 hPa 0,0 l/m 0 min 2 min 0 W/m 43,9 km/h (6 Bft) 97,83 %
08.02.2016 06:50 8,8 C 8,3 C 6,7 C 90 % 0 lf 990,9 hPa 0,0 l/m 0 min 2 min 0 W/m 37,7 km/h (5 Bft) 95,74 %
08.02.2016 06:52 8,9 C 8,3 C 6,7 C 90 % 0 lf 990,9 hPa 0,0 l/m 0 min 2 min 0 W/m 39,7 km/h (6 Bft) 97,87 %
08.02.2016 06:54 8,9 C 8,3 C 6,7 C 90 % 1 lf 990,9 hPa 0,0 l/m 0 min 2 min 0 W/m 41,8 km/h (6 Bft) 97,87 %
08.02.2016 06:56 9,1 C 8,3 C 6,7 C 89 % 1 lf 990,9 hPa 0,0 l/m 0 min 2 min 0 W/m 33,5 km/h (5 Bft) 93,62 %
08.02.2016 06:58 9,2 C 8,3 C 6,7 C 88 % 1 lf 991,1 hPa 0,0 l/m 0 min 2 min 0 W/m 54,4 km/h (7 Bft) 95,65 %
08.02.2016 07:00 9,3 C 8,3 C 6,7 C 88 % 13 lf 991,1 hPa 0,0 l/m 0 min 2 min 0 W/m 41,8 km/h (6 Bft) 97,87 %
08.02.2016 07:02 9,4 C 8,3 C 6,7 C 88 % 15 lf 991,3 hPa 0,0 l/m 0 min 2 min 0 W/m 62,8 km/h (8 Bft) 95,74 %
08.02.2016 07:04 9,5 C 8,3 C 6,7 C 87 % 15 lf 991,5 hPa 0,2 l/m 0 min 2 min 0 W/m 54,4 km/h (7 Bft) 97,87 %
08.02.2016 07:06 9,6 C 8,3 C 6,7 C 87 % 15 lf 991,8 hPa 0,2 l/m 0 min 2 min 0 W/m 43,9 km/h (6 Bft) 100,00 %
08.02.2016 07:08 9,6 C 7,8 C 6,7 C 87 % 15 lf 991,9 hPa 0,2 l/m 0 min 2 min 0 W/m 82,4 km/h (9 Bft) 95,74 %
08.02.2016 07:10 9,6 C 7,8 C 6,7 C 88 % 15 lf 991,7 hPa 0,2 l/m 0 min 2 min 0 W/m 60,7 km/h (7 Bft) 100,00 %
08.02.2016 07:12 9,5 C 7,8 C 6,7 C 88 % 15 lf 991,3 hPa 0,2 l/m 0 min 2 min 0 W/m 39,7 km/h (6 Bft) 93,62 %
08.02.2016 07:14 9,4 C 7,8 C 6,7 C 88 % 15 lf 991,0 hPa 0,0 l/m 0 min 2 min 0 W/m 43,9 km/h (6 Bft) 95,74 %
08.02.2016 07:16 9,3 C 7,8 C 6,7 C 88 % 15 lf 990,5 hPa 0,2 l/m 0 min 2 min 0 W/m 35,6 km/h (5 Bft) 95,74 %
08.02.2016 07:18 9,2 C 7,2 C 6,1 C 89 % 15 lf 990,7 hPa 0,0 l/m 0 min 2 min 0 W/m 46,0 km/h (6 Bft) 91,43 %
08.02.2016 07:20 9,1 C 7,2 C 6,1 C 89 % 15 lf 990,8 hPa 0,2 l/m 0 min 2 min 0 W/m 39,7 km/h (6 Bft) 96,30 %
08.02.2016 07:22 8,9 C 7,2 C 6,1 C 88 % 15 lf 990,8 hPa 0,0 l/m 0 min 0 min 0 W/m 43,9 km/h (6 Bft) 95,12 %
08.02.2016 07:24 8,8 C 7,2 C 6,1 C 88 % 15 lf 990,8 hPa 0,0 l/m 0 min 2 min 0 W/m 31,4 km/h (5 Bft) 97,87 %
08.02.2016 07:26 8,7 C 7,2 C 6,1 C 88 % 15 lf 990,5 hPa 0,0 l/m 0 min 2 min 0 W/m 33,5 km/h (5 Bft) 97,87 %
08.02.2016 07:28 8,7 C 7,2 C 6,1 C 89 % 15 lf 990,4 hPa 0,0 l/m 0 min 2 min 0 W/m 37,7 km/h (5 Bft) 97,87 %
08.02.2016 07:30 8,6 C 7,2 C 6,1 C 89 % 15 lf 990,5 hPa 0,0 l/m 0 min 0 min 0 W/m 29,3 km/h (5 Bft) 95,74 %
08.02.2016 07:32 8,6 C 7,8 C 6,1 C 89 % 15 lf 990,5 hPa 0,0 l/m 0 min 0 min 0 W/m 31,4 km/h (5 Bft) 92,59 %
08.02.2016 07:34 8,5 C 7,8 C 6,1 C 90 % 15 lf 990,5 hPa 0,0 l/m 0 min 0 min 0 W/m 41,8 km/h (6 Bft) 93,62 %
08.02.2016 07:36 8,5 C 7,8 C 6,1 C 90 % 15 lf 990,6 hPa 0,0 l/m 0 min 0 min 0 W/m 41,8 km/h (6 Bft) 94,00 %
08.02.2016 07:38 8,5 C 7,8 C 6,1 C 91 % 15 lf 990,6 hPa 0,0 l/m 0 min 0 min 0 W/m 37,7 km/h (5 Bft) 95,74 %
08.02.2016 07:40 8,5 C 7,8 C 6,1 C 91 % 15 lf 990,5 hPa 0,0 l/m 0 min 0 min 0 W/m 33,5 km/h (5 Bft) 93,62 %
08.02.2016 07:42 8,5 C 7,8 C 6,1 C 91 % 15 lf 990,5 hPa 0,0 l/m 0 min 0 min 0 W/m 39,7 km/h (6 Bft) 97,83 %
08.02.2016 07:44 8,5 C 7,8 C 6,1 C 91 % 15 lf 990,5 hPa 0,0 l/m 0 min 0 min 0 W/m 50,2 km/h (7 Bft) 93,62 %
08.02.2016 07:46 8,4 C 7,8 C 6,1 C 91 % 15 lf 990,3 hPa 0,0 l/m 0 min 0 min 0 W/m 35,6 km/h (5 Bft) 97,87 %
08.02.2016 07:48 8,5 C 7,8 C 6,1 C 91 % 15 lf 990,5 hPa 0,0 l/m 0 min 0 min 0 W/m 52,3 km/h (7 Bft) 95,74 %
08.02.2016 07:50 8,5 C 7,8 C 6,1 C 91 % 15 lf 990,4 hPa 0,0 l/m 0 min 0 min 0 W/m 46,0 km/h (6 Bft) 95,74 %
08.02.2016 07:52 8,5 C 7,8 C 6,1 C 91 % 15 lf 990,6 hPa 0,0 l/m 0 min 0 min 0 W/m 35,6 km/h (5 Bft) 91,67 %
08.02.2016 07:54 8,5 C 7,8 C 6,1 C 91 % 15 lf 990,6 hPa 0,0 l/m 0 min 0 min 0 W/m 43,9 km/h (6 Bft) 97,87 %
08.02.2016 07:56 8,5 C 7,8 C 6,1 C 91 % 15 lf 990,6 hPa 0,0 l/m 0 min 2 min 0 W/m 33,5 km/h (5 Bft) 93,62 %
08.02.2016 07:58 8,5 C 7,8 C 6,1 C 91 % 15 lf 990,6 hPa 0,0 l/m 0 min 0 min 0 W/m 37,7 km/h (5 Bft) 97,83 %
08.02.2016 08:00 8,6 C 7,8 C 6,1 C 91 % 15 lf 990,6 hPa 0,0 l/m 0 min 2 min 0 W/m 46,0 km/h (6 Bft) 97,87 %
08.02.2016 08:02 8,6 C 7,8 C 6,1 C 91 % 15 lf 990,8 hPa 0,0 l/m 0 min 2 min 0 W/m 43,9 km/h (6 Bft) 97,87 %
08.02.2016 08:04 8,6 C 7,8 C 6,1 C 90 % 15 lf 990,7 hPa 0,0 l/m 0 min 2 min 0 W/m 46,0 km/h (6 Bft) 97,87 %
08.02.2016 08:06 8,7 C 7,8 C 6,1 C 90 % 15 lf 990,9 hPa 0,0 l/m 0 min 2 min 0 W/m 41,8 km/h (6 Bft) 98,18 %
08.02.2016 08:08 8,7 C 7,8 C 6,1 C 90 % 15 lf 990,9 hPa 0,0 l/m 0 min 2 min 0 W/m 39,7 km/h (6 Bft) 95,74 %
08.02.2016 08:10 8,7 C 7,8 C 6,1 C 90 % 15 lf 990,6 hPa 0,0 l/m 0 min 2 min 0 W/m 33,5 km/h (5 Bft) 97,87 %
08.02.2016 08:12 8,7 C 7,8 C 6,1 C 90 % 15 lf 990,7 hPa 0,0 l/m 0 min 2 min 0 W/m 39,7 km/h (6 Bft) 95,74 %
08.02.2016 08:14 8,7 C 7,8 C 6,1 C 90 % 15 lf 990,7 hPa 0,0 l/m 0 min 2 min 0 W/m 41,8 km/h (6 Bft) 97,87 %
08.02.2016 08:16 8,7 C 7,8 C 6,1 C 90 % 15 lf 990,9 hPa 0,0 l/m 0 min 2 min 0 W/m 39,7 km/h (6 Bft) 93,62 %
08.02.2016 08:18 8,7 C 7,8 C 6,1 C 90 % 15 lf 990,7 hPa 0,0 l/m 0 min 2 min 0 W/m 43,9 km/h (6 Bft) 97,83 %
08.02.2016 08:20 8,7 C 7,8 C 6,1 C 90 % 15 lf 990,9 hPa 0,0 l/m 0 min 2 min 0 W/m 46,0 km/h (6 Bft) 97,87 %
08.02.2016 08:22 8,7 C 7,8 C 6,1 C 90 % 15 lf 990,9 hPa 0,0 l/m 0 min 2 min 0 W/m 46,0 km/h (6 Bft) 95,74 %
08.02.2016 08:24 8,7 C 7,8 C 6,1 C 90 % 15 lf 990,9 hPa 0,0 l/m 0 min 2 min 0 W/m 46,0 km/h (6 Bft) 93,62 %
08.02.2016 08:26 8,7 C 7,8 C 6,1 C 90 % 15 lf 990,7 hPa 0,2 l/m 0 min 2 min 0 W/m 50,2 km/h (7 Bft) 97,87 %
08.02.2016 08:28 8,7 C 7,8 C 6,1 C 90 % 15 lf 990,8 hPa 0,0 l/m 0 min 2 min 4 W/m 54,4 km/h (7 Bft) 100,00 %
08.02.2016 08:30 8,7 C 7,8 C 6,1 C 90 % 15 lf 990,8 hPa 0,0 l/m 0 min 2 min 0 W/m 37,7 km/h (5 Bft) 97,83 %
08.02.2016 08:32 8,7 C 7,8 C 6,1 C 90 % 15 lf 990,7 hPa 0,2 l/m 0 min 2 min 0 W/m 35,6 km/h (5 Bft) 93,75 %
08.02.2016 08:34 8,7 C 7,2 C 6,1 C 90 % 15 lf 990,6 hPa 0,0 l/m 0 min 2 min 0 W/m 41,8 km/h (6 Bft) 97,87 %
08.02.2016 08:36 8,7 C 7,2 C 6,1 C 90 % 15 lf 990,6 hPa 0,0 l/m 0 min 2 min 4 W/m 33,5 km/h (5 Bft) 97,96 %
08.02.2016 08:38 8,6 C 7,2 C 6,1 C 90 % 15 lf 990,7 hPa 0,0 l/m 0 min 2 min 5 W/m 48,1 km/h (6 Bft) 97,14 %
08.02.2016 08:40 8,6 C 7,2 C 6,1 C 91 % 15 lf 990,7 hPa 0,2 l/m 0 min 2 min 5 W/m 41,8 km/h (6 Bft) 95,74 %
08.02.2016 08:42 8,6 C 7,2 C 6,1 C 91 % 15 lf 990,6 hPa 0,2 l/m 0 min 2 min 7 W/m 46,0 km/h (6 Bft) 97,87 %
08.02.2016 08:44 8,5 C 7,2 C 6,1 C 91 % 15 lf 990,5 hPa 0,0 l/m 0 min 2 min 10 W/m 43,9 km/h (6 Bft) 93,48 %
08.02.2016 08:46 8,4 C 7,2 C 6,1 C 91 % 15 lf 990,4 hPa 0,0 l/m 0 min 2 min 12 W/m 54,4 km/h (7 Bft) 91,49 %
08.02.2016 08:48 8,4 C 7,2 C 6,1 C 90 % 15 lf 990,7 hPa 0,0 l/m 0 min 2 min 14 W/m 41,8 km/h (6 Bft) 97,87 %
08.02.2016 08:50 8,4 C 7,2 C 6,1 C 91 % 15 lf 990,8 hPa 0,0 l/m 0 min 0 min 12 W/m 37,7 km/h (5 Bft) 91,49 %
08.02.2016 08:52 8,4 C 7,2 C 6,1 C 91 % 15 lf 990,8 hPa 0,0 l/m 0 min 0 min 9 W/m 43,9 km/h (6 Bft) 97,87 %
08.02.2016 08:54 8,3 C 7,2 C 6,1 C 91 % 15 lf 990,7 hPa 0,0 l/m 0 min 0 min 8 W/m 39,7 km/h (6 Bft) 89,36 %
08.02.2016 08:56 8,3 C 7,2 C 6,1 C 90 % 15 lf 990,6 hPa 0,0 l/m 0 min 0 min 9 W/m 29,3 km/h (5 Bft) 95,65 %
08.02.2016 08:58 8,3 C 7,2 C 6,1 C 90 % 15 lf 990,8 hPa 0,0 l/m 0 min 0 min 9 W/m 43,9 km/h (6 Bft) 97,87 %
08.02.2016 09:00 8,3 C 7,2 C 6,1 C 90 % 15 lf 990,8 hPa 0,0 l/m 0 min 0 min 9 W/m 39,7 km/h (6 Bft) 91,49 %
08.02.2016 09:02 8,3 C 7,2 C 6,1 C 90 % 15 lf 990,8 hPa 0,0 l/m 0 min 2 min 9 W/m 39,7 km/h (6 Bft) 89,36 %
08.02.2016 09:04 8,3 C 7,2 C 6,1 C 90 % 15 lf 991,0 hPa 0,0 l/m 0 min 2 min 9 W/m 33,5 km/h (5 Bft) 91,49 %
08.02.2016 09:06 8,3 C 7,2 C 6,1 C 90 % 15 lf 991,2 hPa 0,0 l/m 0 min 2 min 9 W/m 52,3 km/h (7 Bft) 96,30 %
08.02.2016 09:08 8,3 C 7,2 C 6,1 C 90 % 15 lf 990,9 hPa 0,0 l/m 0 min 2 min 10 W/m 39,7 km/h (6 Bft) 93,62 %
08.02.2016 09:10 8,3 C 7,2 C 6,1 C 90 % 15 lf 990,8 hPa 0,0 l/m 0 min 2 min 11 W/m 37,7 km/h (5 Bft) 93,62 %
08.02.2016 09:12 8,3 C 7,2 C 6,1 C 90 % 15 lf 990,8 hPa 0,0 l/m 0 min 0 min 11 W/m 39,7 km/h (6 Bft) 91,49 %
08.02.2016 09:14 8,3 C 7,2 C 6,1 C 90 % 15 lf 990,8 hPa 0,0 l/m 0 min 2 min 11 W/m 37,7 km/h (5 Bft) 91,49 %
08.02.2016 09:16 8,3 C 7,2 C 6,1 C 90 % 15 lf 990,8 hPa 0,0 l/m 0 min 2 min 9 W/m 50,2 km/h (7 Bft) 93,62 %
08.02.2016 09:18 8,3 C 7,2 C 6,1 C 90 % 15 lf 990,8 hPa 0,0 l/m 0 min 2 min 10 W/m 33,5 km/h (5 Bft) 89,13 %
08.02.2016 09:20 8,3 C 7,2 C 6,1 C 90 % 15 lf 990,9 hPa 0,0 l/m 0 min 2 min 11 W/m 46,0 km/h (6 Bft) 91,49 %
08.02.2016 09:22 8,3 C 7,2 C 6,1 C 90 % 15 lf 991,0 hPa 0,0 l/m 0 min 2 min 11 W/m 33,5 km/h (5 Bft) 91,84 %
08.02.2016 09:24 8,3 C 7,2 C 6,1 C 89 % 15 lf 991,0 hPa 0,0 l/m 0 min 2 min 11 W/m 43,9 km/h (6 Bft) 95,74 %
08.02.2016 09:26 8,3 C 7,2 C 6,1 C 89 % 15 lf 991,1 hPa 0,0 l/m 0 min 2 min 15 W/m 41,8 km/h (6 Bft) 93,62 %
08.02.2016 09:28 8,3 C 7,2 C 5,6 C 89 % 15 lf 991,1 hPa 0,0 l/m 0 min 2 min 20 W/m 48,1 km/h (6 Bft) 97,83 %
08.02.2016 09:30 8,3 C 7,2 C 5,6 C 89 % 15 lf 990,7 hPa 0,2 l/m 0 min 2 min 28 W/m 46,0 km/h (6 Bft) 97,87 %
08.02.2016 09:32 8,3 C 7,2 C 5,6 C 89 % 15 lf 990,6 hPa 0,0 l/m 0 min 2 min 38 W/m 37,7 km/h (5 Bft) 95,83 %
08.02.2016 09:34 8,2 C 7,2 C 5,6 C 89 % 15 lf 990,6 hPa 0,0 l/m 0 min 2 min 43 W/m 43,9 km/h (6 Bft) 95,74 %
08.02.2016 09:36 8,2 C 7,2 C 5,6 C 89 % 15 lf 990,6 hPa 0,0 l/m 0 min 0 min 43 W/m 27,2 km/h (4 Bft) 100,00 %
08.02.2016 09:38 8,2 C 7,2 C 5,6 C 89 % 15 lf 990,6 hPa 0,0 l/m 0 min 0 min 39 W/m 25,1 km/h (4 Bft) 95,74 %
08.02.2016 09:40 8,2 C 7,2 C 5,6 C 90 % 15 lf 990,7 hPa 0,0 l/m 0 min 0 min 36 W/m 33,5 km/h (5 Bft) 97,87 %
08.02.2016 09:42 8,1 C 7,2 C 5,6 C 90 % 15 lf 990,6 hPa 0,0 l/m 0 min 2 min 30 W/m 33,5 km/h (5 Bft) 95,65 %
08.02.2016 09:44 8,1 C 7,2 C 5,6 C 90 % 15 lf 990,6 hPa 0,0 l/m 0 min 2 min 26 W/m 33,5 km/h (5 Bft) 95,74 %
08.02.2016 09:46 8,1 C 7,2 C 5,6 C 90 % 15 lf 990,6 hPa 0,0 l/m 0 min 2 min 27 W/m 37,7 km/h (5 Bft) 95,74 %
08.02.2016 09:48 8,1 C 7,2 C 5,6 C 90 % 15 lf 990,6 hPa 0,0 l/m 0 min 0 min 33 W/m 35,6 km/h (5 Bft) 97,87 %
08.02.2016 09:50 8,0 C 7,2 C 5,6 C 91 % 15 lf 990,4 hPa 0,0 l/m 0 min 0 min 37 W/m 35,6 km/h (5 Bft) 95,74 %
08.02.2016 09:52 8,0 C 7,2 C 5,6 C 91 % 15 lf 990,6 hPa 0,0 l/m 0 min 2 min 43 W/m 31,4 km/h (5 Bft) 97,87 %
08.02.2016 09:54 8,0 C 7,2 C 6,1 C 91 % 15 lf 990,6 hPa 0,0 l/m 0 min 2 min 58 W/m 23,0 km/h (4 Bft) 95,65 %
08.02.2016 09:56 8,0 C 7,2 C 6,1 C 91 % 15 lf 990,6 hPa 0,0 l/m 0 min 0 min 66 W/m 35,6 km/h (5 Bft) 93,62 %
08.02.2016 09:58 8,0 C 7,8 C 6,1 C 91 % 15 lf 990,5 hPa 0,0 l/m 0 min 0 min 83 W/m 33,5 km/h (5 Bft) 97,87 %
08.02.2016 10:00 8,0 C 7,8 C 6,1 C 91 % 15 lf 990,5 hPa 0,0 l/m 0 min 0 min 109 W/m 39,7 km/h (6 Bft) 97,87 %
08.02.2016 10:02 8,0 C 7,8 C 6,1 C 92 % 15 lf 990,6 hPa 0,0 l/m 0 min 2 min 112 W/m 39,7 km/h (6 Bft) 97,87 %
08.02.2016 10:04 8,1 C 7,8 C 6,1 C 92 % 15 lf 990,6 hPa 0,0 l/m 0 min 0 min 73 W/m 27,2 km/h (4 Bft) 97,87 %
08.02.2016 10:06 8,1 C 7,8 C 6,1 C 92 % 14 lf 990,6 hPa 0,0 l/m 0 min 0 min 68 W/m 29,3 km/h (5 Bft) 100,00 %
08.02.2016 10:08 8,1 C 7,8 C 6,1 C 92 % 13 lf 990,6 hPa 0,0 l/m 0 min 2 min 69 W/m 33,5 km/h (5 Bft) 93,62 %
08.02.2016 10:10 8,1 C 7,8 C 6,7 C 92 % 12 lf 990,6 hPa 0,0 l/m 0 min 2 min 82 W/m 37,7 km/h (5 Bft) 95,74 %
08.02.2016 10:12 8,2 C 7,8 C 6,7 C 92 % 9 lf 990,7 hPa 0,0 l/m 0 min 2 min 105 W/m 41,8 km/h (6 Bft) 100,00 %
08.02.2016 10:14 8,2 C 8,3 C 6,7 C 92 % 6 lf 990,8 hPa 0,0 l/m 0 min 2 min 133 W/m 35,6 km/h (5 Bft) 97,87 %
08.02.2016 10:16 8,3 C 8,3 C 6,7 C 92 % 4 lf 990,8 hPa 0,0 l/m 2 min 0 min 163 W/m 33,5 km/h (5 Bft) 97,83 %
08.02.2016 10:18 8,3 C 8,3 C 6,7 C 92 % 3 lf 990,8 hPa 0,0 l/m 0 min 0 min 138 W/m 31,4 km/h (5 Bft) 100,00 %
08.02.2016 10:20 8,4 C 8,3 C 6,7 C 92 % 1 lf 990,9 hPa 0,0 l/m 0 min 0 min 136 W/m 46,0 km/h (6 Bft) 100,00 %
08.02.2016 10:22 8,4 C 8,3 C 6,7 C 91 % 0 lf 990,8 hPa 0,0 l/m 0 min 2 min 141 W/m 39,7 km/h (6 Bft) 97,87 %
08.02.2016 10:24 8,5 C 8,3 C 6,7 C 91 % 0 lf 990,9 hPa 0,0 l/m 2 min 0 min 144 W/m 29,3 km/h (5 Bft) 100,00 %
08.02.2016 10:26 8,6 C 8,3 C 6,7 C 91 % 0 lf 990,8 hPa 0,0 l/m 0 min 2 min 114 W/m 37,7 km/h (5 Bft) 93,48 %
08.02.2016 10:28 8,6 C 8,3 C 6,7 C 91 % 0 lf 990,7 hPa 0,0 l/m 0 min 0 min 97 W/m 31,4 km/h (5 Bft) 97,87 %
08.02.2016 10:30 8,7 C 8,3 C 6,7 C 90 % 0 lf 990,5 hPa 0,0 l/m 0 min 0 min 118 W/m 43,9 km/h (6 Bft) 100,00 %
08.02.2016 10:32 8,7 C 8,3 C 6,7 C 90 % 0 lf 990,6 hPa 0,0 l/m 0 min 2 min 145 W/m 48,1 km/h (6 Bft) 97,87 %
08.02.2016 10:34 8,7 C 8,3 C 6,7 C 90 % 0 lf 990,6 hPa 0,0 l/m 2 min 2 min 169 W/m 43,9 km/h (6 Bft) 100,00 %
08.02.2016 10:36 8,8 C 8,9 C 6,7 C 89 % 0 lf 990,5 hPa 0,0 l/m 2 min 2 min 173 W/m 31,4 km/h (5 Bft) 97,37 %
08.02.2016 10:38 8,8 C 8,9 C 7,2 C 89 % 0 lf 990,3 hPa 0,0 l/m 2 min 0 min 188 W/m 46,0 km/h (6 Bft) 100,00 %
08.02.2016 10:40 8,9 C 8,9 C 7,2 C 89 % 0 lf 990,3 hPa 0,0 l/m 2 min 2 min 170 W/m 37,7 km/h (5 Bft) 100,00 %
08.02.2016 10:42 8,9 C 8,9 C 6,7 C 88 % 0 lf 990,4 hPa 0,0 l/m 0 min 2 min 136 W/m 41,8 km/h (6 Bft) 95,65 %
08.02.2016 10:44 9,0 C 8,9 C 6,7 C 88 % 0 lf 990,5 hPa 0,0 l/m 0 min 0 min 126 W/m 25,1 km/h (4 Bft) 93,62 %
08.02.2016 10:46 9,0 C 8,9 C 6,7 C 88 % 0 lf 990,6 hPa 0,0 l/m 0 min 0 min 104 W/m 50,2 km/h (7 Bft) 97,87 %
08.02.2016 10:48 9,1 C 8,3 C 6,7 C 87 % 1 lf 990,6 hPa 0,0 l/m 0 min 0 min 78 W/m 31,4 km/h (5 Bft) 100,00 %
08.02.2016 10:50 9,1 C 8,3 C 6,7 C 87 % 0 lf 990,8 hPa 0,0 l/m 0 min 2 min 71 W/m 31,4 km/h (5 Bft) 97,87 %
08.02.2016 10:52 9,1 C 8,3 C 6,7 C 86 % 0 lf 990,8 hPa 0,0 l/m 0 min 0 min 75 W/m 43,9 km/h (6 Bft) 95,65 %
08.02.2016 10:54 9,1 C 8,9 C 6,7 C 86 % 0 lf 990,7 hPa 0,0 l/m 0 min 2 min 63 W/m 52,3 km/h (7 Bft) 95,74 %
08.02.2016 10:56 9,1 C 9,4 C 6,7 C 86 % 0 lf 990,7 hPa 0,0 l/m 0 min 2 min 52 W/m 29,3 km/h (5 Bft) 95,74 %
08.02.2016 10:58 9,1 C 9,4 C 6,7 C 85 % 0 lf 990,8 hPa 0,0 l/m 0 min 0 min 48 W/m 41,8 km/h (6 Bft) 97,87 %
08.02.2016 11:00 9,1 C 9,4 C 6,7 C 85 % 0 lf 990,8 hPa 0,0 l/m 0 min 0 min 46 W/m 27,2 km/h (4 Bft) 95,74 %
08.02.2016 11:02 9,1 C 9,4 C 6,7 C 85 % 0 lf 990,7 hPa 0,0 l/m 0 min 0 min 55 W/m 46,0 km/h (6 Bft) 97,87 %
08.02.2016 11:04 9,1 C 9,4 C 6,7 C 85 % 0 lf 990,8 hPa 0,0 l/m 0 min 0 min 66 W/m 37,7 km/h (5 Bft) 95,65 %
08.02.2016 11:06 9,1 C 9,4 C 6,7 C 85 % 0 lf 990,9 hPa 0,0 l/m 0 min 0 min 75 W/m 43,9 km/h (6 Bft) 98,15 %
08.02.2016 11:08 9,1 C 9,4 C 6,7 C 85 % 0 lf 990,8 hPa 0,0 l/m 0 min 0 min 100 W/m 37,7 km/h (5 Bft) 93,62 %
08.02.2016 11:10 9,2 C 10,0 C 7,2 C 85 % 0 lf 990,6 hPa 0,0 l/m 0 min 0 min 129 W/m 27,2 km/h (4 Bft) 95,74 %
08.02.2016 11:12 9,2 C 10,0 C 7,2 C 85 % 0 lf 990,5 hPa 0,0 l/m 0 min 0 min 148 W/m 25,1 km/h (4 Bft) 95,83 %
08.02.2016 11:14 9,2 C 10,0 C 7,8 C 85 % 0 lf 990,3 hPa 0,0 l/m 0 min 0 min 165 W/m 20,9 km/h (4 Bft) 97,83 %
08.02.2016 11:16 9,2 C 10,6 C 7,8 C 85 % 0 lf 990,4 hPa 0,0 l/m 2 min 0 min 206 W/m 33,5 km/h (5 Bft) 97,87 %
08.02.2016 11:18 9,2 C 12,2 C 8,3 C 85 % 0 lf 990,5 hPa 0,0 l/m 2 min 0 min 250 W/m 35,6 km/h (5 Bft) 95,74 %
08.02.2016 11:20 9,3 C 12,8 C 8,3 C 85 % 0 lf 990,5 hPa 0,0 l/m 2 min 0 min 380 W/m 41,8 km/h (6 Bft) 97,87 %
08.02.2016 11:22 9,4 C 11,7 C 8,3 C 85 % 0 lf 990,6 hPa 0,0 l/m 2 min 0 min 225 W/m 41,8 km/h (6 Bft) 97,87 %
08.02.2016 11:24 9,4 C 11,1 C 8,3 C 85 % 0 lf 990,7 hPa 0,0 l/m 0 min 0 min 128 W/m 25,1 km/h (4 Bft) 97,87 %
08.02.2016 11:26 9,5 C 11,1 C 7,8 C 84 % 0 lf 990,8 hPa 0,0 l/m 0 min 0 min 152 W/m 39,7 km/h (6 Bft) 97,83 %
08.02.2016 11:28 9,6 C 12,8 C 8,3 C 84 % 0 lf 990,7 hPa 0,0 l/m 2 min 0 min 271 W/m 29,3 km/h (5 Bft) 97,87 %
08.02.2016 11:30 9,6 C 11,7 C 7,8 C 84 % 0 lf 990,7 hPa 0,0 l/m 0 min 0 min 158 W/m 29,3 km/h (5 Bft) 97,87 %
08.02.2016 11:32 9,6 C 11,1 C 7,8 C 83 % 0 lf 990,7 hPa 0,0 l/m 0 min 0 min 64 W/m 37,7 km/h (5 Bft) 91,67 %
08.02.2016 11:34 9,6 C 10,6 C 7,8 C 83 % 0 lf 990,6 hPa 0,0 l/m 0 min 0 min 119 W/m 39,7 km/h (6 Bft) 97,87 %
08.02.2016 11:36 9,6 C 11,7 C 7,8 C 83 % 0 lf 990,6 hPa 0,0 l/m 2 min 0 min 204 W/m 33,5 km/h (5 Bft) 94,74 %
08.02.2016 11:38 9,7 C 11,7 C 8,3 C 83 % 0 lf 990,6 hPa 0,0 l/m 0 min 0 min 162 W/m 41,8 km/h (6 Bft) 97,87 %
08.02.2016 11:40 9,7 C 11,1 C 8,3 C 83 % 0 lf 990,6 hPa 0,0 l/m 0 min 0 min 124 W/m 37,7 km/h (5 Bft) 97,83 %
08.02.2016 11:42 9,7 C 10,6 C 7,8 C 83 % 0 lf 990,6 hPa 0,0 l/m 0 min 0 min 85 W/m 37,7 km/h (5 Bft) 95,74 %
08.02.2016 11:44 9,7 C 10,6 C 7,8 C 83 % 0 lf 990,6 hPa 0,0 l/m 0 min 0 min 111 W/m 35,6 km/h (5 Bft) 93,62 %
08.02.2016 11:46 9,7 C 10,0 C 7,8 C 83 % 1 lf 990,7 hPa 0,0 l/m 0 min 2 min 103 W/m 37,7 km/h (5 Bft) 95,74 %
08.02.2016 11:48 9,6 C 10,0 C 7,8 C 83 % 2 lf 990,6 hPa 0,0 l/m 0 min 2 min 102 W/m 31,4 km/h (5 Bft) 95,74 %
08.02.2016 11:50 9,6 C 9,4 C 7,8 C 83 % 2 lf 990,6 hPa 0,0 l/m 0 min 2 min 89 W/m 29,3 km/h (5 Bft) 95,74 %
08.02.2016 11:52 9,6 C 9,4 C 7,8 C 83 % 2 lf 990,6 hPa 0,0 l/m 0 min 2 min 73 W/m 41,8 km/h (6 Bft) 93,48 %
08.02.2016 11:54 9,5 C 9,4 C 7,8 C 82 % 1 lf 990,6 hPa 0,0 l/m 0 min 2 min 99 W/m 33,5 km/h (5 Bft) 93,62 %
08.02.2016 11:56 9,5 C 10,0 C 7,8 C 82 % 1 lf 990,6 hPa 0,0 l/m 0 min 2 min 113 W/m 25,1 km/h (4 Bft) 91,49 %
08.02.2016 11:58 9,4 C 10,0 C 7,8 C 82 % 0 lf 990,5 hPa 0,0 l/m 0 min 2 min 130 W/m 37,7 km/h (5 Bft) 95,74 %
08.02.2016 12:00 9,4 C 10,6 C 7,8 C 82 % 0 lf 990,4 hPa 0,0 l/m 0 min 2 min 153 W/m 37,7 km/h (5 Bft) 93,62 %
08.02.2016 12:02 9,4 C 11,1 C 8,3 C 82 % 0 lf 990,4 hPa 0,0 l/m 0 min 2 min 179 W/m 33,5 km/h (5 Bft) 91,49 %
08.02.2016 12:04 9,4 C 12,2 C 8,9 C 82 % 0 lf 990,2 hPa 0,0 l/m 2 min 2 min 361 W/m 27,2 km/h (4 Bft) 94,23 %
08.02.2016 12:06 9,5 C 12,2 C 8,9 C 82 % 0 lf 990,2 hPa 0,0 l/m 2 min 0 min 290 W/m 29,3 km/h (5 Bft) 98,00 %
08.02.2016 12:08 9,6 C 12,8 C 9,4 C 82 % 0 lf 990,1 hPa 0,0 l/m 2 min 0 min 307 W/m 20,9 km/h (4 Bft) 95,74 %
08.02.2016 12:10 9,7 C 12,8 C 9,4 C 82 % 0 lf 990,1 hPa 0,0 l/m 2 min 0 min 217 W/m 23,0 km/h (4 Bft) 97,87 %
08.02.2016 12:12 9,7 C 11,7 C 9,4 C 81 % 0 lf 990,1 hPa 0,0 l/m 0 min 0 min 146 W/m 37,7 km/h (5 Bft) 97,87 %
08.02.2016 12:14 9,7 C 11,1 C 8,9 C 80 % 0 lf 990,0 hPa 0,0 l/m 0 min 0 min 104 W/m 33,5 km/h (5 Bft) 93,62 %
08.02.2016 12:16 9,7 C 10,6 C 8,3 C 80 % 0 lf 990,0 hPa 0,0 l/m 0 min 0 min 85 W/m 39,7 km/h (6 Bft) 91,49 %
08.02.2016 12:18 9,8 C 10,6 C 8,3 C 79 % 0 lf 990,1 hPa 0,0 l/m 0 min 0 min 75 W/m 33,5 km/h (5 Bft) 97,87 %
08.02.2016 12:20 9,8 C 10,6 C 8,3 C 79 % 0 lf 989,9 hPa 0,0 l/m 0 min 0 min 74 W/m 25,1 km/h (4 Bft) 95,74 %
08.02.2016 12:22 9,8 C 10,6 C 8,3 C 79 % 0 lf 990,0 hPa 0,0 l/m 0 min 0 min 81 W/m 27,2 km/h (4 Bft) 95,74 %
08.02.2016 12:24 9,8 C 10,6 C 8,3 C 79 % 0 lf 989,9 hPa 0,0 l/m 0 min 0 min 94 W/m 39,7 km/h (6 Bft) 87,23 %
08.02.2016 12:26 9,8 C 10,6 C 8,3 C 79 % 0 lf 989,7 hPa 0,0 l/m 0 min 0 min 134 W/m 37,7 km/h (5 Bft) 93,62 %
08.02.2016 12:28 9,8 C 10,6 C 8,3 C 79 % 0 lf 989,8 hPa 0,0 l/m 0 min 0 min 124 W/m 39,7 km/h (6 Bft) 91,49 %
08.02.2016 12:30 9,8 C 10,6 C 8,3 C 79 % 0 lf 989,8 hPa 0,0 l/m 0 min 0 min 100 W/m 43,9 km/h (6 Bft) 95,74 %
08.02.2016 12:32 9,8 C 10,6 C 8,3 C 78 % 0 lf 989,8 hPa 0,0 l/m 0 min 0 min 100 W/m 39,7 km/h (6 Bft) 94,44 %
08.02.2016 12:34 9,8 C 10,6 C 8,3 C 78 % 0 lf 989,7 hPa 0,0 l/m 0 min 0 min 96 W/m 39,7 km/h (6 Bft) 95,74 %
08.02.2016 12:36 9,8 C 10,6 C 8,3 C 77 % 0 lf 989,7 hPa 0,0 l/m 0 min 0 min 153 W/m 33,5 km/h (5 Bft) 94,55 %
08.02.2016 12:38 9,8 C 10,6 C 8,3 C 77 % 0 lf 989,9 hPa 0,0 l/m 0 min 0 min 167 W/m 43,9 km/h (6 Bft) 93,62 %
08.02.2016 12:40 9,8 C 11,1 C 8,9 C 77 % 0 lf 989,9 hPa 0,0 l/m 0 min 0 min 146 W/m 41,8 km/h (6 Bft) 93,62 %
08.02.2016 12:42 9,8 C 11,1 C 8,9 C 77 % 0 lf 990,0 hPa 0,0 l/m 0 min 0 min 143 W/m 50,2 km/h (7 Bft) 91,67 %
08.02.2016 12:44 9,8 C 10,6 C 8,9 C 77 % 0 lf 990,1 hPa 0,0 l/m 0 min 0 min 121 W/m 39,7 km/h (6 Bft) 91,49 %
08.02.2016 12:46 9,9 C 10,6 C 8,3 C 77 % 0 lf 990,3 hPa 0,0 l/m 0 min 0 min 81 W/m 48,1 km/h (6 Bft) 91,49 %
08.02.2016 12:48 9,9 C 10,0 C 8,3 C 77 % 1 lf 990,3 hPa 0,0 l/m 0 min 0 min 40 W/m 52,3 km/h (7 Bft) 95,65 %
08.02.2016 12:50 9,8 C 9,4 C 7,8 C 77 % 15 lf 990,6 hPa 0,0 l/m 0 min 2 min 23 W/m 50,2 km/h (7 Bft) 95,74 %
08.02.2016 12:52 9,8 C 8,3 C 7,2 C 77 % 15 lf 990,8 hPa 0,0 l/m 0 min 2 min 16 W/m 39,7 km/h (6 Bft) 91,49 %
08.02.2016 12:54 9,7 C 7,2 C 6,1 C 78 % 15 lf 991,1 hPa 0,0 l/m 0 min 2 min 12 W/m 64,9 km/h (8 Bft) 97,87 %
08.02.2016 12:56 9,2 C 6,1 C 5,0 C 78 % 15 lf 991,2 hPa 0,4 l/m 0 min 2 min 16 W/m 50,2 km/h (7 Bft) 93,62 %
08.02.2016 12:58 8,8 C 5,6 C 4,4 C 79 % 15 lf 991,1 hPa 0,4 l/m 0 min 2 min 24 W/m 43,9 km/h (6 Bft) 93,48 %
08.02.2016 13:00 8,3 C 5,0 C 4,4 C 81 % 15 lf 990,9 hPa 0,2 l/m 0 min 2 min 43 W/m 48,1 km/h (6 Bft) 95,74 %
08.02.2016 13:02 7,9 C 5,6 C 4,4 C 82 % 15 lf 990,8 hPa 0,2 l/m 0 min 2 min 75 W/m 35,6 km/h (5 Bft) 89,58 %
08.02.2016 13:04 7,6 C 5,6 C 4,4 C 83 % 15 lf 990,8 hPa 0,0 l/m 0 min 2 min 110 W/m 39,7 km/h (6 Bft) 95,74 %
08.02.2016 13:06 7,4 C 5,6 C 4,4 C 84 % 15 lf 990,8 hPa 0,0 l/m 0 min 2 min 140 W/m 37,7 km/h (5 Bft) 91,67 %
08.02.2016 13:08 7,2 C 5,6 C 4,4 C 85 % 15 lf 990,9 hPa 0,0 l/m 0 min 2 min 117 W/m 41,8 km/h (6 Bft) 97,87 %
08.02.2016 13:10 7,0 C 5,6 C 4,4 C 86 % 15 lf 990,7 hPa 0,0 l/m 0 min 2 min 132 W/m 31,4 km/h (5 Bft) 93,62 %
08.02.2016 13:12 6,8 C 6,1 C 4,4 C 87 % 15 lf 990,7 hPa 0,0 l/m 0 min 0 min 162 W/m 33,5 km/h (5 Bft) 93,48 %
08.02.2016 13:14 6,7 C 6,7 C 5,0 C 87 % 15 lf 990,8 hPa 0,0 l/m 0 min 0 min 142 W/m 33,5 km/h (5 Bft) 95,74 %
08.02.2016 13:16 6,7 C 7,8 C 5,0 C 88 % 15 lf 990,7 hPa 0,0 l/m 2 min 0 min 252 W/m 39,7 km/h (6 Bft) 97,87 %
08.02.2016 13:18 6,7 C 10,0 C 5,0 C 89 % 15 lf 990,6 hPa 0,0 l/m 2 min 0 min 374 W/m 41,8 km/h (6 Bft) 100,00 %
08.02.2016 13:20 6,7 C 10,6 C 5,0 C 89 % 15 lf 990,8 hPa 0,0 l/m 2 min 0 min 384 W/m 33,5 km/h (5 Bft) 97,87 %
08.02.2016 13:22 6,8 C 11,1 C 5,0 C 90 % 15 lf 990,7 hPa 0,0 l/m 2 min 0 min 361 W/m 31,4 km/h (5 Bft) 100,00 %
08.02.2016 13:24 6,9 C 11,1 C 5,6 C 91 % 15 lf 990,7 hPa 0,0 l/m 2 min 0 min 360 W/m 27,2 km/h (4 Bft) 93,62 %
08.02.2016 13:26 7,0 C 11,1 C 5,6 C 91 % 15 lf 990,7 hPa 0,0 l/m 2 min 0 min 359 W/m 29,3 km/h (5 Bft) 100,00 %
08.02.2016 13:28 7,1 C 12,2 C 5,6 C 91 % 15 lf 990,7 hPa 0,0 l/m 2 min 0 min 362 W/m 29,3 km/h (5 Bft) 100,00 %
08.02.2016 13:30 7,2 C 12,2 C 5,6 C 91 % 15 lf 990,6 hPa 0,0 l/m 2 min 0 min 361 W/m 29,3 km/h (5 Bft) 100,00 %
08.02.2016 13:32 7,3 C 12,2 C 5,6 C 91 % 15 lf 990,6 hPa 0,0 l/m 2 min 0 min 361 W/m 35,6 km/h (5 Bft) 100,00 %
08.02.2016 13:34 7,4 C 11,7 C 5,6 C 91 % 15 lf 990,6 hPa 0,0 l/m 2 min 0 min 358 W/m 37,7 km/h (5 Bft) 100,00 %
08.02.2016 13:36 7,5 C 11,1 C 5,6 C 92 % 15 lf 990,6 hPa 0,0 l/m 2 min 0 min 358 W/m 37,7 km/h (5 Bft) 100,00 %
08.02.2016 13:38 7,6 C 11,7 C 5,6 C 91 % 15 lf 990,6 hPa 0,0 l/m 2 min 0 min 357 W/m 46,0 km/h (6 Bft) 97,87 %
08.02.2016 13:40 7,7 C 11,7 C 6,1 C 91 % 15 lf 990,7 hPa 0,0 l/m 2 min 0 min 359 W/m 43,9 km/h (6 Bft) 97,87 %
08.02.2016 13:42 7,9 C 12,2 C 6,1 C 91 % 15 lf 990,6 hPa 0,0 l/m 2 min 0 min 381 W/m 37,7 km/h (5 Bft) 97,96 %
08.02.2016 13:44 7,9 C 10,0 C 6,1 C 90 % 15 lf 990,7 hPa 0,0 l/m 2 min 0 min 215 W/m 39,7 km/h (6 Bft) 100,00 %
08.02.2016 13:46 8,1 C 9,4 C 6,1 C 90 % 15 lf 990,6 hPa 0,0 l/m 0 min 0 min 126 W/m 54,4 km/h (7 Bft) 100,00 %
08.02.2016 13:48 8,1 C 9,4 C 6,1 C 89 % 15 lf 990,7 hPa 0,0 l/m 0 min 0 min 132 W/m 41,8 km/h (6 Bft) 97,87 %
08.02.2016 13:50 8,2 C 9,4 C 6,1 C 88 % 15 lf 990,6 hPa 0,0 l/m 0 min 0 min 150 W/m 43,9 km/h (6 Bft) 100,00 %
08.02.2016 13:52 8,2 C 9,4 C 6,1 C 88 % 14 lf 990,6 hPa 0,0 l/m 0 min 0 min 174 W/m 46,0 km/h (6 Bft) 97,37 %
08.02.2016 13:54 8,3 C 8,9 C 6,1 C 87 % 12 lf 990,6 hPa 0,0 l/m 0 min 0 min 149 W/m 39,7 km/h (6 Bft) 97,87 %
08.02.2016 13:56 8,3 C 8,3 C 6,1 C 87 % 10 lf 990,6 hPa 0,0 l/m 0 min 0 min 147 W/m 50,2 km/h (7 Bft) 100,00 %
08.02.2016 13:58 8,4 C 8,9 C 6,1 C 86 % 7 lf 990,6 hPa 0,0 l/m 0 min 0 min 154 W/m 33,5 km/h (5 Bft) 97,87 %
08.02.2016 14:00 8,4 C 8,3 C 6,1 C 86 % 5 lf 990,6 hPa 0,0 l/m 0 min 0 min 139 W/m 50,2 km/h (7 Bft) 97,83 %
08.02.2016 14:02 8,5 C 8,3 C 6,1 C 86 % 4 lf 990,5 hPa 0,0 l/m 0 min 0 min 112 W/m 37,7 km/h (5 Bft) 100,00 %
08.02.2016 14:04 8,6 C 8,3 C 6,1 C 85 % 3 lf 990,5 hPa 0,0 l/m 0 min 0 min 108 W/m 41,8 km/h (6 Bft) 89,36 %
08.02.2016 14:06 8,6 C 8,3 C 6,1 C 85 % 3 lf 990,6 hPa 0,0 l/m 0 min 0 min 93 W/m 35,6 km/h (5 Bft) 98,15 %
08.02.2016 14:08 8,6 C 8,3 C 6,1 C 84 % 2 lf 990,5 hPa 0,0 l/m 0 min 0 min 89 W/m 37,7 km/h (5 Bft) 97,87 %
08.02.2016 14:10 8,6 C 8,9 C 6,1 C 83 % 2 lf 990,5 hPa 0,0 l/m 0 min 0 min 90 W/m 33,5 km/h (5 Bft) 97,83 %
08.02.2016 14:12 8,7 C 9,4 C 6,1 C 83 % 1 lf 990,5 hPa 0,0 l/m 0 min 0 min 83 W/m 39,7 km/h (6 Bft) 97,87 %
08.02.2016 14:14 8,7 C 9,4 C 6,1 C 82 % 1 lf 990,4 hPa 0,0 l/m 0 min 0 min 89 W/m 31,4 km/h (5 Bft) 97,87 %
08.02.2016 14:16 8,7 C 9,4 C 6,1 C 82 % 0 lf 990,3 hPa 0,0 l/m 0 min 0 min 96 W/m 56,5 km/h (7 Bft) 100,00 %
08.02.2016 14:18 8,7 C 9,4 C 6,1 C 81 % 0 lf 990,4 hPa 0,0 l/m 0 min 0 min 89 W/m 41,8 km/h (6 Bft) 95,74 %
08.02.2016 14:20 8,7 C 9,4 C 6,1 C 80 % 2 lf 990,4 hPa 0,0 l/m 0 min 0 min 84 W/m 33,5 km/h (5 Bft) 97,87 %
08.02.2016 14:22 8,7 C 9,4 C 6,1 C 81 % 0 lf 990,3 hPa 0,0 l/m 0 min 2 min 79 W/m 33,5 km/h (5 Bft) 97,83 %
08.02.2016 14:24 8,8 C 9,4 C 6,1 C 80 % 1 lf 990,3 hPa 0,0 l/m 0 min 2 min 84 W/m 50,2 km/h (7 Bft) 95,74 %
08.02.2016 14:26 8,8 C 10,0 C 6,1 C 79 % 0 lf 990,2 hPa 0,0 l/m 0 min 0 min 108 W/m 39,7 km/h (6 Bft) 97,87 %
08.02.2016 14:28 8,8 C 10,0 C 6,1 C 79 % 0 lf 990,2 hPa 0,0 l/m 0 min 0 min 141 W/m 35,6 km/h (5 Bft) 97,87 %
08.02.2016 14:30 8,9 C 10,6 C 6,7 C 79 % 0 lf 990,4 hPa 0,0 l/m 2 min 0 min 177 W/m 29,3 km/h (5 Bft) 95,74 %
08.02.2016 14:32 8,9 C 11,7 C 6,7 C 79 % 0 lf 990,2 hPa 0,0 l/m 2 min 0 min 296 W/m 33,5 km/h (5 Bft) 97,87 %
08.02.2016 14:34 9,1 C 13,3 C 7,2 C 79 % 0 lf 990,3 hPa 0,0 l/m 2 min 0 min 394 W/m 33,5 km/h (5 Bft) 91,49 %
08.02.2016 14:36 9,2 C 13,3 C 7,2 C 79 % 0 lf 990,3 hPa 0,0 l/m 2 min 0 min 329 W/m 33,5 km/h (5 Bft) 96,00 %
08.02.2016 14:38 9,2 C 12,2 C 6,7 C 79 % 0 lf 990,3 hPa 0,0 l/m 2 min 0 min 229 W/m 46,0 km/h (6 Bft) 95,74 %
08.02.2016 14:40 9,4 C 12,8 C 6,7 C 77 % 0 lf 990,2 hPa 0,0 l/m 2 min 0 min 269 W/m 52,3 km/h (7 Bft) 95,74 %
08.02.2016 14:42 9,5 C 12,8 C 7,2 C 76 % 0 lf 990,2 hPa 0,0 l/m 2 min 0 min 263 W/m 39,7 km/h (6 Bft) 93,62 %
08.02.2016 14:44 9,6 C 11,7 C 6,7 C 76 % 0 lf 990,2 hPa 0,0 l/m 2 min 0 min 180 W/m 41,8 km/h (6 Bft) 97,83 %
08.02.2016 14:46 9,7 C 11,7 C 6,7 C 75 % 0 lf 990,2 hPa 0,0 l/m 2 min 0 min 182 W/m 33,5 km/h (5 Bft) 87,23 %
08.02.2016 14:48 9,7 C 11,1 C 7,2 C 75 % 0 lf 990,1 hPa 0,0 l/m 2 min 0 min 186 W/m 29,3 km/h (5 Bft) 95,74 %
08.02.2016 14:50 9,8 C 11,1 C 6,7 C 74 % 0 lf 990,1 hPa 0,0 l/m 0 min 0 min 133 W/m 41,8 km/h (6 Bft) 95,74 %
08.02.2016 14:52 9,8 C 10,6 C 6,7 C 74 % 0 lf 990,2 hPa 0,0 l/m 0 min 0 min 66 W/m 37,7 km/h (5 Bft) 95,74 %
08.02.2016 14:54 9,7 C 10,0 C 6,1 C 73 % 0 lf 990,2 hPa 0,0 l/m 0 min 0 min 33 W/m 37,7 km/h (5 Bft) 95,74 %
08.02.2016 14:56 9,7 C 10,0 C 6,1 C 73 % 0 lf 990,2 hPa 0,0 l/m 0 min 0 min 26 W/m 46,0 km/h (6 Bft) 91,30 %
08.02.2016 14:58 9,7 C 10,0 C 6,1 C 73 % 2 lf 990,7 hPa 0,0 l/m 0 min 0 min 13 W/m 43,9 km/h (6 Bft) 93,62 %
08.02.2016 15:00 9,6 C 8,3 C 5,6 C 74 % 15 lf 991,4 hPa 0,0 l/m 0 min 2 min 8 W/m 71,1 km/h (8 Bft) 95,74 %
08.02.2016 15:02 9,1 C 5,6 C 3,3 C 74 % 15 lf 991,6 hPa 0,4 l/m 0 min 2 min 11 W/m 58,6 km/h (7 Bft) 91,67 %
08.02.2016 15:04 8,5 C 5,0 C 2,8 C 76 % 15 lf 991,2 hPa 0,4 l/m 0 min 2 min 39 W/m 31,4 km/h (5 Bft) 94,29 %
08.02.2016 15:06 8,0 C 6,7 C 3,3 C 77 % 15 lf 990,8 hPa 0,0 l/m 2 min 2 min 192 W/m 35,6 km/h (5 Bft) 97,87 %
08.02.2016 15:08 7,6 C 7,2 C 3,9 C 80 % 15 lf 990,8 hPa 0,0 l/m 2 min 2 min 289 W/m 37,7 km/h (5 Bft) 97,87 %
08.02.2016 15:10 7,4 C 8,3 C 3,9 C 81 % 15 lf 990,7 hPa 0,2 l/m 2 min 0 min 268 W/m 37,7 km/h (5 Bft) 95,65 %
08.02.2016 15:12 7,2 C 10,0 C 4,4 C 83 % 15 lf 990,7 hPa 0,0 l/m 2 min 0 min 366 W/m 29,3 km/h (5 Bft) 100,00 %
08.02.2016 15:14 7,2 C 10,0 C 4,4 C 84 % 15 lf 990,8 hPa 0,0 l/m 2 min 0 min 354 W/m 39,7 km/h (6 Bft) 95,74 %
08.02.2016 15:16 7,1 C 10,0 C 4,4 C 85 % 15 lf 990,8 hPa 0,0 l/m 2 min 0 min 319 W/m 39,7 km/h (6 Bft) 97,87 %
08.02.2016 15:18 7,1 C 9,4 C 5,0 C 85 % 15 lf 990,8 hPa 0,0 l/m 2 min 0 min 302 W/m 33,5 km/h (5 Bft) 93,62 %
08.02.2016 15:20 7,1 C 10,0 C 5,0 C 86 % 15 lf 990,8 hPa 0,0 l/m 2 min 0 min 246 W/m 31,4 km/h (5 Bft) 93,62 %
08.02.2016 15:22 7,1 C 9,4 C 5,0 C 86 % 15 lf 990,8 hPa 0,0 l/m 2 min 0 min 210 W/m 29,3 km/h (5 Bft) 93,48 %
08.02.2016 15:24 7,1 C 8,9 C 5,0 C 86 % 15 lf 990,8 hPa 0,0 l/m 2 min 0 min 179 W/m 29,3 km/h (5 Bft) 93,62 %
08.02.2016 15:26 7,1 C 9,4 C 5,0 C 87 % 15 lf 990,9 hPa 0,0 l/m 2 min 0 min 196 W/m 27,2 km/h (4 Bft) 95,74 %
08.02.2016 15:28 7,1 C 9,4 C 5,0 C 87 % 15 lf 990,9 hPa 0,0 l/m 2 min 0 min 232 W/m 23,0 km/h (4 Bft) 95,74 %
08.02.2016 15:30 7,1 C 9,4 C 5,0 C 87 % 15 lf 990,9 hPa 0,0 l/m 2 min 0 min 162 W/m 31,4 km/h (5 Bft) 93,62 %
08.02.2016 15:32 7,2 C 9,4 C 5,0 C 87 % 15 lf 991,0 hPa 0,0 l/m 2 min 0 min 199 W/m 39,7 km/h (6 Bft) 93,62 %
08.02.2016 15:34 7,2 C 9,4 C 5,0 C 87 % 15 lf 990,9 hPa 0,0 l/m 2 min 0 min 191 W/m 37,7 km/h (5 Bft) 95,65 %
08.02.2016 15:36 7,2 C 9,4 C 5,0 C 87 % 15 lf 990,9 hPa 0,0 l/m 0 min 0 min 117 W/m 23,0 km/h (4 Bft) 96,36 %
08.02.2016 15:38 7,3 C 8,9 C 5,0 C 87 % 15 lf 990,9 hPa 0,0 l/m 0 min 0 min 94 W/m 31,4 km/h (5 Bft) 93,62 %
08.02.2016 15:40 7,3 C 8,9 C 5,0 C 87 % 15 lf 990,9 hPa 0,0 l/m 0 min 0 min 93 W/m 41,8 km/h (6 Bft) 91,49 %
08.02.2016 15:42 7,3 C 9,4 C 5,0 C 87 % 15 lf 990,8 hPa 0,0 l/m 2 min 0 min 139 W/m 37,7 km/h (5 Bft) 93,62 %
08.02.2016 15:44 7,4 C 8,9 C 5,0 C 87 % 15 lf 991,0 hPa 0,0 l/m 2 min 0 min 118 W/m 43,9 km/h (6 Bft) 95,74 %
08.02.2016 15:46 7,5 C 8,9 C 5,6 C 86 % 15 lf 990,9 hPa 0,0 l/m 2 min 0 min 150 W/m 48,1 km/h (6 Bft) 93,62 %
08.02.2016 15:48 7,6 C 9,4 C 5,6 C 86 % 15 lf 990,8 hPa 0,0 l/m 2 min 0 min 173 W/m 41,8 km/h (6 Bft) 93,62 %
08.02.2016 15:50 7,7 C 9,4 C 5,6 C 85 % 15 lf 990,9 hPa 0,0 l/m 2 min 0 min 164 W/m 41,8 km/h (6 Bft) 95,74 %
08.02.2016 15:52 7,8 C 9,4 C 5,6 C 85 % 15 lf 991,0 hPa 0,0 l/m 0 min 0 min 106 W/m 33,5 km/h (5 Bft) 94,74 %
08.02.2016 15:54 7,9 C 9,4 C 5,6 C 84 % 15 lf 990,9 hPa 0,0 l/m 0 min 0 min 93 W/m 37,7 km/h (5 Bft) 93,62 %
08.02.2016 15:56 7,9 C 9,4 C 5,6 C 83 % 15 lf 990,9 hPa 0,0 l/m 0 min 0 min 86 W/m 50,2 km/h (7 Bft) 95,74 %
08.02.2016 15:58 8,1 C 9,4 C 5,6 C 82 % 14 lf 990,9 hPa 0,0 l/m 0 min 0 min 81 W/m 39,7 km/h (6 Bft) 95,65 %
08.02.2016 16:00 8,2 C 9,4 C 5,6 C 81 % 13 lf 991,0 hPa 0,0 l/m 0 min 0 min 90 W/m 48,1 km/h (6 Bft) 91,49 %
08.02.2016 16:02 8,2 C 9,4 C 5,6 C 80 % 12 lf 991,1 hPa 0,0 l/m 2 min 0 min 113 W/m 58,6 km/h (7 Bft) 95,74 %
08.02.2016 16:04 8,3 C 9,4 C 5,6 C 79 % 10 lf 991,0 hPa 0,0 l/m 2 min 0 min 121 W/m 75,3 km/h (9 Bft) 93,62 %
08.02.2016 16:06 8,4 C 9,4 C 5,6 C 79 % 7 lf 991,1 hPa 0,0 l/m 2 min 0 min 99 W/m 60,7 km/h (7 Bft) 94,55 %
08.02.2016 16:08 8,4 C 9,4 C 5,6 C 78 % 4 lf 991,0 hPa 0,0 l/m 0 min 0 min 87 W/m 48,1 km/h (6 Bft) 91,49 %
08.02.2016 16:10 8,5 C 8,9 C 5,6 C 78 % 3 lf 991,0 hPa 0,0 l/m 0 min 0 min 77 W/m 54,4 km/h (7 Bft) 97,87 %
08.02.2016 16:12 8,5 C 8,9 C 5,0 C 77 % 1 lf 991,5 hPa 0,0 l/m 0 min 0 min 76 W/m 69,0 km/h (8 Bft) 95,74 %
08.02.2016 16:14 8,5 C 8,9 C 5,6 C 77 % 0 lf 991,2 hPa 0,0 l/m 0 min 0 min 73 W/m 48,1 km/h (6 Bft) 97,87 %
08.02.2016 16:16 8,5 C 8,9 C 5,6 C 77 % 0 lf 991,2 hPa 0,0 l/m 0 min 0 min 72 W/m 58,6 km/h (7 Bft) 97,87 %
08.02.2016 16:18 8,5 C 8,9 C 5,0 C 77 % 0 lf 991,2 hPa 0,0 l/m 0 min 0 min 71 W/m 52,3 km/h (7 Bft) 100,00 %
08.02.2016 16:20 8,4 C 8,9 C 5,0 C 77 % 0 lf 991,2 hPa 0,0 l/m 0 min 0 min 73 W/m 41,8 km/h (6 Bft) 100,00 %
08.02.2016 16:22 8,4 C 8,9 C 5,0 C 77 % 0 lf 991,2 hPa 0,0 l/m 0 min 0 min 75 W/m 58,6 km/h (7 Bft) 97,87 %
08.02.2016 16:24 8,4 C 8,9 C 5,0 C 77 % 0 lf 991,2 hPa 0,0 l/m 0 min 0 min 76 W/m 56,5 km/h (7 Bft) 97,87 %
08.02.2016 16:26 8,4 C 8,9 C 5,0 C 77 % 0 lf 991,2 hPa 0,0 l/m 2 min 0 min 76 W/m 62,8 km/h (8 Bft) 97,87 %
08.02.2016 16:28 8,4 C 8,9 C 5,0 C 77 % 0 lf 991,3 hPa 0,0 l/m 2 min 0 min 78 W/m 52,3 km/h (7 Bft) 100,00 %
08.02.2016 16:30 8,4 C 8,9 C 5,6 C 77 % 0 lf 991,3 hPa 0,0 l/m 2 min 0 min 93 W/m 37,7 km/h (5 Bft) 95,74 %
08.02.2016 16:32 8,3 C 8,9 C 5,6 C 77 % 0 lf 991,5 hPa 0,0 l/m 2 min 0 min 105 W/m 52,3 km/h (7 Bft) 97,92 %
08.02.2016 16:34 8,3 C 8,9 C 5,6 C 77 % 0 lf 991,5 hPa 0,0 l/m 2 min 0 min 96 W/m 41,8 km/h (6 Bft) 97,87 %
08.02.2016 16:36 8,3 C 8,9 C 5,6 C 78 % 0 lf 991,5 hPa 0,0 l/m 2 min 0 min 77 W/m 37,7 km/h (5 Bft) 97,96 %
08.02.2016 16:38 8,3 C 8,3 C 5,0 C 78 % 0 lf 991,5 hPa 0,0 l/m 0 min 0 min 51 W/m 46,0 km/h (6 Bft) 97,14 %
08.02.2016 16:40 8,3 C 8,3 C 5,0 C 78 % 0 lf 991,6 hPa 0,0 l/m 0 min 0 min 38 W/m 46,0 km/h (6 Bft) 94,83 %
08.02.2016 16:42 8,3 C 8,3 C 5,0 C 77 % 0 lf 991,6 hPa 0,0 l/m 0 min 0 min 32 W/m 46,0 km/h (6 Bft) 97,14 %
08.02.2016 16:44 8,3 C 8,3 C 5,0 C 77 % 0 lf 991,5 hPa 0,0 l/m 0 min 0 min 37 W/m 52,3 km/h (7 Bft) 97,87 %
08.02.2016 16:46 8,3 C 8,3 C 5,6 C 77 % 0 lf 991,6 hPa 0,0 l/m 0 min 0 min 35 W/m 62,8 km/h (8 Bft) 95,74 %
08.02.2016 16:48 8,3 C 8,3 C 6,1 C 77 % 0 lf 991,7 hPa 0,0 l/m 0 min 0 min 32 W/m 52,3 km/h (7 Bft) 93,62 %
08.02.2016 16:50 8,3 C 8,3 C 6,1 C 77 % 0 lf 991,6 hPa 0,0 l/m 0 min 0 min 37 W/m 39,7 km/h (6 Bft) 97,87 %
08.02.2016 16:52 8,3 C 8,3 C 6,1 C 77 % 0 lf 991,6 hPa 0,0 l/m 0 min 0 min 44 W/m 48,1 km/h (6 Bft) 95,74 %
08.02.2016 16:54 8,3 C 8,3 C 6,1 C 77 % 0 lf 991,6 hPa 0,0 l/m 2 min 0 min 46 W/m 48,1 km/h (6 Bft) 95,74 %
08.02.2016 16:56 8,3 C 8,3 C 6,1 C 77 % 0 lf 991,6 hPa 0,0 l/m 0 min 0 min 38 W/m 46,0 km/h (6 Bft) 97,83 %
08.02.2016 16:58 8,3 C 8,3 C 6,1 C 77 % 0 lf 991,7 hPa 0,0 l/m 0 min 0 min 28 W/m 54,4 km/h (7 Bft) 97,87 %
08.02.2016 17:00 8,3 C 8,3 C 6,1 C 77 % 0 lf 991,7 hPa 0,0 l/m 0 min 0 min 23 W/m 50,2 km/h (7 Bft) 95,74 %
08.02.2016 17:02 8,3 C 8,3 C 6,1 C 77 % 0 lf 991,6 hPa 0,0 l/m 0 min 0 min 20 W/m 46,0 km/h (6 Bft) 97,87 %
08.02.2016 17:04 8,3 C 8,3 C 6,1 C 76 % 0 lf 991,6 hPa 0,0 l/m 0 min 0 min 18 W/m 48,1 km/h (6 Bft) 95,74 %
08.02.2016 17:06 8,3 C 8,3 C 6,1 C 76 % 0 lf 991,5 hPa 0,0 l/m 0 min 0 min 16 W/m 39,7 km/h (6 Bft) 96,36 %
08.02.2016 17:08 8,3 C 8,3 C 6,1 C 76 % 0 lf 991,4 hPa 0,0 l/m 0 min 0 min 16 W/m 43,9 km/h (6 Bft) 95,74 %
08.02.2016 17:10 8,3 C 8,3 C 6,1 C 76 % 0 lf 991,6 hPa 0,0 l/m 0 min 0 min 16 W/m 48,1 km/h (6 Bft) 93,62 %
08.02.2016 17:12 8,3 C 8,3 C 6,7 C 76 % 0 lf 991,6 hPa 0,0 l/m 0 min 0 min 16 W/m 37,7 km/h (5 Bft) 93,62 %
08.02.2016 17:14 8,3 C 8,3 C 6,7 C 76 % 0 lf 991,6 hPa 0,0 l/m 0 min 0 min 15 W/m 35,6 km/h (5 Bft) 95,74 %
08.02.2016 17:16 8,3 C 8,3 C 6,7 C 76 % 0 lf 991,7 hPa 0,0 l/m 0 min 0 min 12 W/m 41,8 km/h (6 Bft) 95,65 %
08.02.2016 17:18 8,3 C 8,3 C 6,7 C 76 % 0 lf 991,6 hPa 0,0 l/m 0 min 0 min 11 W/m 50,2 km/h (7 Bft) 95,74 %
08.02.2016 17:20 8,3 C 8,3 C 6,7 C 76 % 0 lf 991,7 hPa 0,0 l/m 0 min 0 min 10 W/m 50,2 km/h (7 Bft) 95,74 %
08.02.2016 17:22 8,3 C 8,3 C 6,7 C 76 % 0 lf 991,6 hPa 0,0 l/m 0 min 0 min 9 W/m 52,3 km/h (7 Bft) 93,62 %
08.02.2016 17:24 8,3 C 8,3 C 6,7 C 76 % 0 lf 991,7 hPa 0,0 l/m 0 min 0 min 9 W/m 52,3 km/h (7 Bft) 97,87 %
08.02.2016 17:26 8,3 C 8,3 C 6,7 C 76 % 0 lf 991,5 hPa 0,0 l/m 0 min 0 min 9 W/m 43,9 km/h (6 Bft) 97,87 %
08.02.2016 17:28 8,3 C 8,3 C 6,7 C 76 % 0 lf 991,6 hPa 0,0 l/m 0 min 0 min 9 W/m 39,7 km/h (6 Bft) 97,83 %
08.02.2016 17:30 8,3 C 8,3 C 6,7 C 76 % 0 lf 991,8 hPa 0,0 l/m 0 min 0 min 9 W/m 43,9 km/h (6 Bft) 93,62 %
08.02.2016 17:32 8,4 C 8,9 C 6,7 C 75 % 0 lf 991,7 hPa 0,0 l/m 0 min 0 min 7 W/m 50,2 km/h (7 Bft) 95,74 %
08.02.2016 17:34 8,4 C 8,9 C 6,7 C 75 % 0 lf 991,5 hPa 0,0 l/m 0 min 0 min 8 W/m 56,5 km/h (7 Bft) 95,74 %
08.02.2016 17:36 8,4 C 8,9 C 6,7 C 75 % 0 lf 991,5 hPa 0,0 l/m 0 min 0 min 7 W/m 48,1 km/h (6 Bft) 97,37 %
08.02.2016 17:38 8,4 C 8,9 C 6,7 C 75 % 0 lf 991,6 hPa 0,0 l/m 0 min 0 min 7 W/m 39,7 km/h (6 Bft) 95,74 %
08.02.2016 17:40 8,5 C 8,9 C 6,7 C 74 % 0 lf 991,7 hPa 0,0 l/m 0 min 0 min 5 W/m 50,2 km/h (7 Bft) 97,87 %
08.02.2016 17:42 8,5 C 8,9 C 6,7 C 74 % 0 lf 991,6 hPa 0,0 l/m 0 min 0 min 5 W/m 29,3 km/h (5 Bft) 95,65 %
08.02.2016 17:44 8,5 C 8,9 C 6,7 C 74 % 0 lf 991,6 hPa 0,0 l/m 0 min 0 min 4 W/m 64,9 km/h (8 Bft) 97,87 %
08.02.2016 17:46 8,5 C 8,9 C 6,7 C 74 % 0 lf 991,6 hPa 0,0 l/m 0 min 2 min 0 W/m 62,8 km/h (8 Bft) 97,87 %
08.02.2016 17:48 8,6 C 8,9 C 6,7 C 73 % 0 lf 991,5 hPa 0,0 l/m 0 min 2 min 0 W/m 48,1 km/h (6 Bft) 93,62 %
08.02.2016 17:50 8,6 C 8,9 C 6,7 C 73 % 0 lf 991,6 hPa 0,0 l/m 0 min 2 min 0 W/m 66,9 km/h (8 Bft) 95,74 %
08.02.2016 17:52 8,6 C 8,9 C 6,7 C 73 % 0 lf 991,8 hPa 0,0 l/m 0 min 0 min 0 W/m 60,7 km/h (7 Bft) 100,00 %
08.02.2016 17:54 8,6 C 8,9 C 6,7 C 73 % 0 lf 991,9 hPa 0,0 l/m 0 min 2 min 0 W/m 56,5 km/h (7 Bft) 97,83 %
08.02.2016 17:56 8,6 C 8,3 C 6,7 C 74 % 0 lf 991,9 hPa 0,0 l/m 0 min 2 min 0 W/m 43,9 km/h (6 Bft) 97,87 %
08.02.2016 17:58 8,6 C 8,3 C 6,7 C 74 % 0 lf 991,9 hPa 0,0 l/m 0 min 2 min 0 W/m 50,2 km/h (7 Bft) 95,74 %
08.02.2016 18:00 8,6 C 8,3 C 6,7 C 74 % 1 lf 991,9 hPa 0,0 l/m 0 min 0 min 0 W/m 48,1 km/h (6 Bft) 95,74 %
08.02.2016 18:02 8,5 C 8,3 C 6,7 C 74 % 0 lf 992,0 hPa 0,0 l/m 0 min 0 min 0 W/m 58,6 km/h (7 Bft) 97,87 %
08.02.2016 18:04 8,4 C 8,3 C 6,7 C 75 % 0 lf 992,0 hPa 0,0 l/m 0 min 0 min 0 W/m 39,7 km/h (6 Bft) 97,87 %
08.02.2016 18:06 8,4 C 8,3 C 6,1 C 75 % 7 lf 992,2 hPa 0,0 l/m 0 min 2 min 0 W/m 58,6 km/h (7 Bft) 98,15 %
08.02.2016 18:08 8,3 C 7,2 C 5,6 C 76 % 10 lf 992,0 hPa 0,0 l/m 0 min 2 min 0 W/m 41,8 km/h (6 Bft) 100,00 %
08.02.2016 18:10 8,2 C 7,2 C 5,6 C 76 % 11 lf 992,1 hPa 0,0 l/m 0 min 2 min 0 W/m 46,0 km/h (6 Bft) 97,87 %
08.02.2016 18:12 8,2 C 7,2 C 5,6 C 77 % 14 lf 992,1 hPa 0,0 l/m 0 min 2 min 0 W/m 46,0 km/h (6 Bft) 100,00 %
08.02.2016 18:14 8,1 C 7,2 C 5,6 C 78 % 15 lf 992,1 hPa 0,0 l/m 0 min 2 min 0 W/m 43,9 km/h (6 Bft) 100,00 %
08.02.2016 18:16 8,0 C 6,7 C 5,6 C 78 % 15 lf 992,1 hPa 0,0 l/m 0 min 2 min 0 W/m 50,2 km/h (7 Bft) 100,00 %
08.02.2016 18:18 7,9 C 6,7 C 5,6 C 78 % 15 lf 992,2 hPa 0,0 l/m 0 min 2 min 0 W/m 48,1 km/h (6 Bft) 100,00 %
08.02.2016 18:20 7,9 C 6,7 C 5,0 C 79 % 15 lf 992,2 hPa 0,0 l/m 0 min 2 min 0 W/m 56,5 km/h (7 Bft) 100,00 %
08.02.2016 18:22 7,8 C 6,7 C 5,0 C 79 % 15 lf 992,2 hPa 0,0 l/m 0 min 2 min 0 W/m 56,5 km/h (7 Bft) 95,74 %
08.02.2016 18:24 7,8 C 7,2 C 5,0 C 80 % 15 lf 992,3 hPa 0,0 l/m 0 min 2 min 0 W/m 58,6 km/h (7 Bft) 95,74 %
08.02.2016 18:26 7,7 C 7,2 C 5,0 C 80 % 15 lf 992,1 hPa 0,0 l/m 0 min 2 min 0 W/m 48,1 km/h (6 Bft) 97,83 %
08.02.2016 18:28 7,7 C 7,2 C 5,0 C 80 % 15 lf 992,2 hPa 0,0 l/m 0 min 2 min 0 W/m 64,9 km/h (8 Bft) 97,87 %
08.02.2016 18:30 7,7 C 7,2 C 5,6 C 80 % 15 lf 992,2 hPa 0,0 l/m 0 min 2 min 0 W/m 41,8 km/h (6 Bft) 95,74 %
08.02.2016 18:32 7,6 C 7,8 C 5,6 C 80 % 15 lf 992,2 hPa 0,0 l/m 0 min 2 min 0 W/m 58,6 km/h (7 Bft) 95,83 %
08.02.2016 18:34 7,6 C 7,8 C 5,6 C 80 % 15 lf 992,2 hPa 0,0 l/m 0 min 2 min 0 W/m 58,6 km/h (7 Bft) 95,74 %
08.02.2016 18:36 7,6 C 7,8 C 5,6 C 80 % 15 lf 992,2 hPa 0,0 l/m 0 min 2 min 0 W/m 64,9 km/h (8 Bft) 94,59 %
08.02.2016 18:38 7,7 C 7,8 C 5,6 C 80 % 14 lf 992,2 hPa 0,0 l/m 0 min 2 min 0 W/m 43,9 km/h (6 Bft) 98,28 %
08.02.2016 18:40 7,7 C 7,8 C 5,6 C 80 % 9 lf 992,3 hPa 0,0 l/m 0 min 2 min 0 W/m 41,8 km/h (6 Bft) 93,62 %
08.02.2016 18:42 7,7 C 7,8 C 6,1 C 80 % 3 lf 992,3 hPa 0,0 l/m 0 min 2 min 0 W/m 69,0 km/h (8 Bft) 95,74 %
08.02.2016 18:44 7,7 C 7,8 C 6,1 C 80 % 0 lf 992,3 hPa 0,0 l/m 0 min 2 min 0 W/m 48,1 km/h (6 Bft) 94,44 %
08.02.2016 18:46 7,7 C 7,8 C 6,1 C 79 % 0 lf 992,2 hPa 0,0 l/m 0 min 2 min 0 W/m 52,3 km/h (7 Bft) 96,61 %
08.02.2016 18:48 7,8 C 8,3 C 6,1 C 79 % 0 lf 992,2 hPa 0,0 l/m 0 min 2 min 0 W/m 62,8 km/h (8 Bft) 91,43 %
08.02.2016 18:50 7,8 C 8,3 C 6,1 C 79 % 0 lf 992,2 hPa 0,0 l/m 0 min 2 min 0 W/m 54,4 km/h (7 Bft) 94,83 %
08.02.2016 18:52 7,8 C 8,3 C 6,1 C 78 % 0 lf 992,2 hPa 0,0 l/m 0 min 0 min 0 W/m 48,1 km/h (6 Bft) 97,22 %
08.02.2016 18:54 7,9 C 8,3 C 6,1 C 78 % 0 lf 992,2 hPa 0,2 l/m 0 min 2 min 0 W/m 64,9 km/h (8 Bft) 93,62 %
08.02.2016 18:56 7,9 C 8,3 C 6,1 C 78 % 0 lf 992,3 hPa 0,0 l/m 0 min 2 min 0 W/m 41,8 km/h (6 Bft) 93,62 %
08.02.2016 18:58 7,9 C 8,3 C 6,1 C 78 % 0 lf 992,3 hPa 0,0 l/m 0 min 0 min 0 W/m 87,9 km/h (9 Bft) 91,49 %
08.02.2016 19:00 8,0 C 8,3 C 6,1 C 78 % 0 lf 992,3 hPa 0,0 l/m 0 min 2 min 0 W/m 64,9 km/h (8 Bft) 93,62 %
08.02.2016 19:02 8,0 C 8,3 C 6,1 C 77 % 0 lf 992,2 hPa 0,0 l/m 0 min 2 min 0 W/m 56,5 km/h (7 Bft) 93,48 %
08.02.2016 19:04 8,1 C 8,3 C 6,7 C 77 % 0 lf 992,2 hPa 0,0 l/m 0 min 2 min 0 W/m 54,4 km/h (7 Bft) 91,49 %
08.02.2016 19:06 8,1 C 8,3 C 6,7 C 77 % 0 lf 992,6 hPa 0,0 l/m 0 min 2 min 0 W/m 60,7 km/h (7 Bft) 95,83 %
08.02.2016 19:08 8,1 C 8,3 C 6,7 C 76 % 0 lf 992,5 hPa 0,0 l/m 0 min 2 min 0 W/m 62,8 km/h (8 Bft) 95,74 %
08.02.2016 19:10 8,2 C 8,3 C 6,1 C 76 % 2 lf 992,8 hPa 0,0 l/m 0 min 2 min 0 W/m 54,4 km/h (7 Bft) 95,74 %
08.02.2016 19:12 8,2 C 8,3 C 6,1 C 76 % 1 lf 992,5 hPa 0,0 l/m 0 min 2 min 0 W/m 73,2 km/h (8 Bft) 97,87 %
08.02.2016 19:14 8,2 C 8,3 C 6,1 C 76 % 0 lf 992,3 hPa 0,0 l/m 0 min 2 min 0 W/m 54,4 km/h (7 Bft) 93,48 %
08.02.2016 19:16 8,2 C 8,3 C 6,1 C 76 % 0 lf 992,4 hPa 0,0 l/m 0 min 2 min 0 W/m 64,9 km/h (8 Bft) 95,74 %
08.02.2016 19:18 8,2 C 8,3 C 6,7 C 76 % 1 lf 992,7 hPa 0,0 l/m 0 min 2 min 0 W/m 62,8 km/h (8 Bft) 93,62 %
08.02.2016 19:20 8,2 C 8,3 C 6,7 C 76 % 3 lf 992,8 hPa 0,0 l/m 0 min 2 min 0 W/m 50,2 km/h (7 Bft) 95,74 %
08.02.2016 19:22 8,2 C 8,3 C 6,1 C 76 % 15 lf 992,6 hPa 0,0 l/m 0 min 2 min 0 W/m 58,6 km/h (7 Bft) 97,87 %
08.02.2016 19:24 8,2 C 7,8 C 6,1 C 77 % 15 lf 992,5 hPa 0,0 l/m 0 min 2 min 0 W/m 71,1 km/h (8 Bft) 95,74 %
08.02.2016 19:26 8,2 C 7,8 C 6,1 C 77 % 9 lf 992,5 hPa 0,0 l/m 0 min 2 min 0 W/m 52,3 km/h (7 Bft) 95,65 %
08.02.2016 19:28 8,2 C 8,3 C 6,1 C 77 % 2 lf 992,5 hPa 0,0 l/m 0 min 2 min 0 W/m 66,9 km/h (8 Bft) 97,87 %
08.02.2016 19:30 8,2 C 8,3 C 6,1 C 76 % 0 lf 992,5 hPa 0,0 l/m 0 min 2 min 0 W/m 54,4 km/h (7 Bft) 93,62 %
08.02.2016 19:32 8,2 C 8,3 C 6,1 C 77 % 0 lf 992,5 hPa 0,0 l/m 0 min 2 min 0 W/m 54,4 km/h (7 Bft) 95,74 %
08.02.2016 19:34 8,2 C 8,3 C 6,7 C 77 % 1 lf 992,6 hPa 0,0 l/m 0 min 0 min 0 W/m 60,7 km/h (7 Bft) 95,74 %
08.02.2016 19:36 8,2 C 8,3 C 6,7 C 76 % 2 lf 992,8 hPa 0,0 l/m 0 min 2 min 0 W/m 46,0 km/h (6 Bft) 94,44 %
08.02.2016 19:38 8,2 C 8,3 C 6,1 C 77 % 6 lf 992,5 hPa 0,0 l/m 0 min 2 min 0 W/m 52,3 km/h (7 Bft) 97,87 %
08.02.2016 19:40 8,2 C 7,8 C 6,1 C 77 % 15 lf 992,6 hPa 0,0 l/m 0 min 2 min 0 W/m 58,6 km/h (7 Bft) 97,87 %
08.02.2016 19:42 8,2 C 7,8 C 6,1 C 77 % 15 lf 992,6 hPa 0,0 l/m 0 min 2 min 0 W/m 66,9 km/h (8 Bft) 97,87 %
08.02.2016 19:44 8,1 C 7,8 C 5,6 C 78 % 15 lf 992,6 hPa 0,0 l/m 0 min 2 min 0 W/m 52,3 km/h (7 Bft) 93,62 %
08.02.2016 19:46 8,1 C 7,8 C 6,1 C 78 % 15 lf 992,6 hPa 0,0 l/m 0 min 2 min 0 W/m 75,3 km/h (9 Bft) 93,48 %
08.02.2016 19:48 8,1 C 7,8 C 5,6 C 78 % 15 lf 992,7 hPa 0,0 l/m 0 min 2 min 0 W/m 75,3 km/h (9 Bft) 95,74 %
08.02.2016 19:50 8,0 C 7,8 C 6,1 C 78 % 15 lf 992,6 hPa 0,0 l/m 0 min 2 min 0 W/m 58,6 km/h (7 Bft) 95,74 %
08.02.2016 19:52 8,0 C 7,8 C 6,1 C 78 % 15 lf 992,5 hPa 0,0 l/m 0 min 2 min 0 W/m 64,9 km/h (8 Bft) 95,83 %
08.02.2016 19:54 8,0 C 7,8 C 5,6 C 79 % 15 lf 992,6 hPa 0,0 l/m 0 min 2 min 0 W/m 54,4 km/h (7 Bft) 95,74 %
08.02.2016 19:56 7,9 C 7,2 C 5,6 C 79 % 15 lf 992,5 hPa 0,0 l/m 0 min 2 min 0 W/m 73,2 km/h (8 Bft) 95,74 %
08.02.2016 19:58 7,9 C 7,2 C 5,6 C 79 % 15 lf 992,6 hPa 0,0 l/m 0 min 2 min 0 W/m 46,0 km/h (6 Bft) 91,30 %
08.02.2016 20:00 7,9 C 7,2 C 5,6 C 79 % 15 lf 992,7 hPa 0,0 l/m 0 min 2 min 0 W/m 62,8 km/h (8 Bft) 95,74 %
08.02.2016 20:02 7,9 C 7,2 C 5,6 C 79 % 15 lf 992,8 hPa 0,0 l/m 0 min 2 min 0 W/m 48,1 km/h (6 Bft) 93,62 %
08.02.2016 20:04 7,9 C 7,8 C 5,6 C 79 % 15 lf 992,8 hPa 0,0 l/m 0 min 2 min 0 W/m 41,8 km/h (6 Bft) 91,49 %
08.02.2016 20:06 7,9 C 7,8 C 5,6 C 79 % 14 lf 992,8 hPa 0,0 l/m 0 min 2 min 0 W/m 37,7 km/h (5 Bft) 97,37 %
08.02.2016 20:08 7,9 C 7,8 C 6,1 C 79 % 1 lf 992,5 hPa 0,0 l/m 0 min 2 min 0 W/m 62,8 km/h (8 Bft) 95,74 %
08.02.2016 20:10 7,9 C 8,3 C 6,1 C 78 % 4 lf 992,8 hPa 0,0 l/m 0 min 2 min 0 W/m 66,9 km/h (8 Bft) 93,62 %
08.02.2016 20:12 7,9 C 8,3 C 6,1 C 78 % 11 lf 992,7 hPa 0,0 l/m 0 min 2 min 0 W/m 54,4 km/h (7 Bft) 91,49 %
08.02.2016 20:14 8,0 C 8,3 C 6,1 C 78 % 2 lf 992,8 hPa 0,0 l/m 0 min 2 min 0 W/m 43,9 km/h (6 Bft) 95,65 %
08.02.2016 20:16 8,0 C 8,3 C 6,1 C 78 % 7 lf 992,9 hPa 0,0 l/m 0 min 2 min 0 W/m 46,0 km/h (6 Bft) 95,74 %
08.02.2016 20:18 8,1 C 8,3 C 6,1 C 78 % 0 lf 992,9 hPa 0,0 l/m 0 min 2 min 0 W/m 50,2 km/h (7 Bft) 95,74 %
08.02.2016 20:20 8,1 C 8,3 C 6,1 C 77 % 0 lf 992,9 hPa 0,0 l/m 0 min 2 min 0 W/m 56,5 km/h (7 Bft) 91,49 %
08.02.2016 20:22 8,1 C 8,3 C 6,7 C 77 % 0 lf 992,8 hPa 0,0 l/m 0 min 2 min 0 W/m 46,0 km/h (6 Bft) 97,87 %
08.02.2016 20:24 8,1 C 8,3 C 6,7 C 76 % 0 lf 992,8 hPa 0,0 l/m 0 min 2 min 0 W/m 52,3 km/h (7 Bft) 95,65 %
08.02.2016 20:26 8,2 C 8,3 C 6,7 C 76 % 3 lf 992,9 hPa 0,0 l/m 0 min 2 min 0 W/m 52,3 km/h (7 Bft) 95,74 %
08.02.2016 20:28 8,2 C 8,3 C 6,7 C 76 % 15 lf 992,9 hPa 0,0 l/m 0 min 2 min 0 W/m 56,5 km/h (7 Bft) 91,49 %
08.02.2016 20:30 8,3 C 8,3 C 6,1 C 76 % 15 lf 992,9 hPa 0,0 l/m 0 min 2 min 0 W/m 56,5 km/h (7 Bft) 100,00 %
08.02.2016 20:32 8,3 C 7,8 C 6,1 C 77 % 15 lf 992,9 hPa 0,0 l/m 0 min 2 min 0 W/m 64,9 km/h (8 Bft) 94,34 %
08.02.2016 20:34 8,3 C 7,8 C 6,1 C 77 % 15 lf 993,2 hPa 0,0 l/m 0 min 2 min 0 W/m 62,8 km/h (8 Bft) 97,83 %
08.02.2016 20:36 8,2 C 7,2 C 5,6 C 78 % 15 lf 993,3 hPa 0,0 l/m 0 min 2 min 0 W/m 83,7 km/h (9 Bft) 98,00 %
08.02.2016 20:38 8,1 C 7,2 C 5,0 C 78 % 15 lf 993,3 hPa 0,0 l/m 0 min 2 min 0 W/m 90,0 km/h (10 Bft) 95,74 %
08.02.2016 20:40 8,0 C 6,7 C 5,0 C 79 % 15 lf 993,3 hPa 0,0 l/m 0 min 2 min 0 W/m 73,2 km/h (8 Bft) 97,87 %
08.02.2016 20:42 7,8 C 6,1 C 5,0 C 80 % 15 lf 993,3 hPa 0,0 l/m 0 min 2 min 0 W/m 73,2 km/h (8 Bft) 97,87 %
08.02.2016 20:44 7,7 C 6,1 C 4,4 C 81 % 15 lf 993,5 hPa 0,2 l/m 0 min 2 min 0 W/m 69,0 km/h (8 Bft) 97,87 %
08.02.2016 20:46 7,6 C 5,6 C 4,4 C 82 % 15 lf 993,6 hPa 0,0 l/m 0 min 2 min 0 W/m 52,3 km/h (7 Bft) 97,83 %
08.02.2016 20:48 7,5 C 5,6 C 4,4 C 82 % 15 lf 993,4 hPa 0,0 l/m 0 min 2 min 0 W/m 48,1 km/h (6 Bft) 93,62 %
08.02.2016 20:50 7,4 C 5,6 C 4,4 C 83 % 15 lf 993,5 hPa 0,2 l/m 0 min 2 min 0 W/m 60,7 km/h (7 Bft) 95,74 %
08.02.2016 20:52 7,3 C 5,6 C 4,4 C 84 % 15 lf 993,5 hPa 0,0 l/m 0 min 2 min 0 W/m 54,4 km/h (7 Bft) 93,62 %
08.02.2016 20:54 7,2 C 5,6 C 4,4 C 84 % 15 lf 993,4 hPa 0,0 l/m 0 min 2 min 0 W/m 52,3 km/h (7 Bft) 97,87 %
08.02.2016 20:56 7,1 C 5,6 C 4,4 C 85 % 15 lf 993,5 hPa 0,0 l/m 0 min 2 min 0 W/m 50,2 km/h (7 Bft) 95,74 %
08.02.2016 20:58 7,1 C 5,6 C 4,4 C 85 % 15 lf 993,5 hPa 0,0 l/m 0 min 2 min 0 W/m 64,9 km/h (8 Bft) 97,83 %
08.02.2016 21:00 7,1 C 5,6 C 4,4 C 86 % 15 lf 993,5 hPa 0,0 l/m 0 min 2 min 0 W/m 66,9 km/h (8 Bft) 95,74 %
08.02.2016 21:02 7,0 C 5,6 C 4,4 C 86 % 15 lf 993,6 hPa 0,2 l/m 0 min 2 min 0 W/m 56,5 km/h (7 Bft) 97,22 %
08.02.2016 21:04 7,0 C 5,6 C 4,4 C 86 % 15 lf 993,7 hPa 0,0 l/m 0 min 2 min 0 W/m 54,4 km/h (7 Bft) 100,00 %
08.02.2016 21:06 6,9 C 5,6 C 4,4 C 86 % 15 lf 993,6 hPa 0,0 l/m 0 min 2 min 0 W/m 50,2 km/h (7 Bft) 100,00 %
08.02.2016 21:08 6,9 C 5,6 C 4,4 C 87 % 15 lf 993,7 hPa 0,0 l/m 0 min 2 min 0 W/m 56,5 km/h (7 Bft) 97,87 %
08.02.2016 21:10 6,9 C 5,6 C 4,4 C 87 % 15 lf 993,6 hPa 0,2 l/m 0 min 2 min 0 W/m 54,4 km/h (7 Bft) 97,87 %
08.02.2016 21:12 6,8 C 5,6 C 4,4 C 87 % 15 lf 993,6 hPa 0,0 l/m 0 min 2 min 0 W/m 46,0 km/h (6 Bft) 97,83 %
08.02.2016 21:14 6,8 C 5,6 C 4,4 C 87 % 15 lf 993,6 hPa 0,0 l/m 0 min 2 min 0 W/m 46,0 km/h (6 Bft) 100,00 %
08.02.2016 21:16 6,8 C 5,6 C 4,4 C 87 % 15 lf 993,5 hPa 0,0 l/m 0 min 2 min 0 W/m 52,3 km/h (7 Bft) 97,87 %
08.02.2016 21:18 6,8 C 5,6 C 4,4 C 88 % 15 lf 993,6 hPa 0,0 l/m 0 min 2 min 0 W/m 54,4 km/h (7 Bft) 100,00 %
08.02.2016 21:20 6,7 C 5,6 C 4,4 C 88 % 15 lf 993,5 hPa 0,0 l/m 0 min 0 min 0 W/m 50,2 km/h (7 Bft) 100,00 %
08.02.2016 21:22 6,8 C 6,1 C 4,4 C 88 % 15 lf 993,6 hPa 0,0 l/m 0 min 0 min 0 W/m 60,7 km/h (7 Bft) 97,83 %
08.02.2016 21:24 6,8 C 6,1 C 4,4 C 88 % 15 lf 993,5 hPa 0,0 l/m 0 min 0 min 0 W/m 46,0 km/h (6 Bft) 97,87 %
08.02.2016 21:26 6,8 C 6,1 C 4,4 C 87 % 15 lf 993,6 hPa 0,0 l/m 0 min 0 min 0 W/m 46,0 km/h (6 Bft) 97,87 %
08.02.2016 21:28 6,8 C 6,1 C 4,4 C 87 % 15 lf 993,6 hPa 0,0 l/m 0 min 0 min 0 W/m 62,8 km/h (8 Bft) 93,62 %
08.02.2016 21:30 6,9 C 6,1 C 4,4 C 87 % 15 lf 993,6 hPa 0,0 l/m 0 min 0 min 0 W/m 50,2 km/h (7 Bft) 97,87 %
08.02.2016 21:32 6,9 C 6,1 C 4,4 C 86 % 15 lf 993,5 hPa 0,0 l/m 0 min 0 min 0 W/m 56,5 km/h (7 Bft) 97,87 %
08.02.2016 21:34 7,1 C 6,1 C 4,4 C 86 % 15 lf 993,7 hPa 0,0 l/m 0 min 0 min 0 W/m 58,6 km/h (7 Bft) 97,83 %
08.02.2016 21:36 7,2 C 6,1 C 4,4 C 85 % 15 lf 993,7 hPa 0,0 l/m 0 min 0 min 0 W/m 54,4 km/h (7 Bft) 93,62 %
08.02.2016 21:38 7,2 C 6,7 C 4,4 C 85 % 15 lf 993,7 hPa 0,0 l/m 0 min 0 min 0 W/m 56,5 km/h (7 Bft) 97,87 %
08.02.2016 21:40 7,3 C 6,7 C 5,0 C 84 % 15 lf 993,7 hPa 0,0 l/m 0 min 0 min 0 W/m 64,9 km/h (8 Bft) 97,87 %
08.02.2016 21:42 7,4 C 6,7 C 5,0 C 83 % 15 lf 993,7 hPa 0,0 l/m 0 min 0 min 0 W/m 50,2 km/h (7 Bft) 97,87 %
08.02.2016 21:44 7,4 C 6,7 C 5,0 C 83 % 15 lf 993,7 hPa 0,0 l/m 0 min 0 min 0 W/m 71,1 km/h (8 Bft) 95,74 %
08.02.2016 21:46 7,5 C 6,7 C 5,0 C 83 % 15 lf 993,7 hPa 0,0 l/m 0 min 0 min 0 W/m 71,1 km/h (8 Bft) 91,30 %
08.02.2016 21:48 7,6 C 6,7 C 5,0 C 82 % 15 lf 993,8 hPa 0,0 l/m 0 min 0 min 0 W/m 66,9 km/h (8 Bft) 97,87 %
08.02.2016 21:50 7,6 C 6,7 C 5,0 C 82 % 15 lf 993,9 hPa 0,0 l/m 0 min 0 min 0 W/m 43,9 km/h (6 Bft) 97,87 %
08.02.2016 21:52 7,6 C 6,7 C 5,0 C 82 % 15 lf 993,8 hPa 0,0 l/m 0 min 0 min 0 W/m 58,6 km/h (7 Bft) 97,87 %
08.02.2016 21:54 7,7 C 6,7 C 5,0 C 81 % 15 lf 993,9 hPa 0,0 l/m 0 min 2 min 0 W/m 83,7 km/h (9 Bft) 97,87 %
08.02.2016 21:56 7,7 C 6,7 C 5,0 C 81 % 15 lf 993,7 hPa 0,0 l/m 0 min 0 min 0 W/m 60,7 km/h (7 Bft) 95,74 %
08.02.2016 21:58 7,8 C 6,7 C 5,0 C 81 % 15 lf 993,8 hPa 0,0 l/m 0 min 0 min 0 W/m 48,1 km/h (6 Bft) 95,65 %
08.02.2016 22:00 7,8 C 6,7 C 5,0 C 81 % 13 lf 993,8 hPa 0,0 l/m 0 min 0 min 0 W/m 64,9 km/h (8 Bft) 97,87 %
08.02.2016 22:02 7,8 C 6,7 C 5,0 C 80 % 11 lf 993,8 hPa 0,0 l/m 0 min 0 min 0 W/m 46,0 km/h (6 Bft) 94,44 %
08.02.2016 22:04 7,8 C 6,7 C 5,0 C 80 % 4 lf 993,8 hPa 0,0 l/m 0 min 0 min 0 W/m 54,4 km/h (7 Bft) 97,87 %
08.02.2016 22:06 7,8 C 7,2 C 5,0 C 80 % 0 lf 993,9 hPa 0,0 l/m 0 min 0 min 0 W/m 52,3 km/h (7 Bft) 97,37 %
08.02.2016 22:08 7,8 C 7,8 C 5,0 C 80 % 1 lf 993,9 hPa 0,0 l/m 0 min 0 min 0 W/m 41,8 km/h (6 Bft) 95,74 %
08.02.2016 22:10 7,8 C 7,8 C 5,0 C 80 % 3 lf 994,0 hPa 0,0 l/m 0 min 0 min 0 W/m 71,1 km/h (8 Bft) 96,55 %
08.02.2016 22:12 7,8 C 7,8 C 5,0 C 80 % 2 lf 994,0 hPa 0,0 l/m 0 min 2 min 0 W/m 52,3 km/h (7 Bft) 95,74 %
08.02.2016 22:14 7,8 C 7,8 C 5,0 C 80 % 2 lf 993,9 hPa 0,0 l/m 0 min 2 min 0 W/m 50,2 km/h (7 Bft) 94,29 %
08.02.2016 22:16 7,8 C 7,8 C 5,0 C 81 % 1 lf 993,9 hPa 0,0 l/m 0 min 0 min 0 W/m 56,5 km/h (7 Bft) 98,31 %
08.02.2016 22:18 7,8 C 7,8 C 5,0 C 80 % 1 lf 994,2 hPa 0,0 l/m 0 min 0 min 0 W/m 56,5 km/h (7 Bft) 100,00 %
08.02.2016 22:20 7,8 C 7,8 C 5,6 C 80 % 2 lf 994,2 hPa 0,0 l/m 0 min 0 min 0 W/m 66,9 km/h (8 Bft) 97,87 %
08.02.2016 22:22 7,8 C 7,8 C 5,6 C 80 % 3 lf 994,2 hPa 0,0 l/m 0 min 0 min 0 W/m 73,2 km/h (8 Bft) 94,83 %
08.02.2016 22:24 7,8 C 7,8 C 5,0 C 80 % 2 lf 994,2 hPa 0,0 l/m 0 min 2 min 0 W/m 60,7 km/h (7 Bft) 94,29 %
08.02.2016 22:26 7,8 C 7,8 C 5,0 C 80 % 0 lf 994,1 hPa 0,0 l/m 0 min 0 min 0 W/m 62,8 km/h (8 Bft) 91,49 %
08.02.2016 22:28 7,8 C 7,8 C 5,0 C 80 % 0 lf 994,2 hPa 0,0 l/m 0 min 0 min 0 W/m 77,4 km/h (9 Bft) 93,22 %
08.02.2016 22:30 7,8 C 7,8 C 5,0 C 80 % 0 lf 994,2 hPa 0,0 l/m 0 min 0 min 0 W/m 58,6 km/h (7 Bft) 95,65 %
08.02.2016 22:32 7,8 C 7,8 C 5,0 C 79 % 0 lf 994,1 hPa 0,0 l/m 0 min 0 min 0 W/m 50,2 km/h (7 Bft) 94,59 %
08.02.2016 22:34 7,8 C 7,8 C 5,0 C 79 % 1 lf 994,3 hPa 0,0 l/m 0 min 0 min 0 W/m 50,2 km/h (7 Bft) 95,65 %
08.02.2016 22:36 7,8 C 7,8 C 5,6 C 79 % 3 lf 994,4 hPa 0,0 l/m 0 min 0 min 0 W/m 60,7 km/h (7 Bft) 91,67 %
08.02.2016 22:38 7,9 C 8,3 C 5,6 C 79 % 3 lf 994,4 hPa 0,0 l/m 0 min 0 min 0 W/m 54,4 km/h (7 Bft) 93,62 %
08.02.2016 22:40 7,9 C 8,3 C 5,6 C 79 % 2 lf 994,3 hPa 0,0 l/m 0 min 2 min 0 W/m 73,2 km/h (8 Bft) 95,74 %
08.02.2016 22:42 7,9 C 8,3 C 5,6 C 78 % 0 lf 994,4 hPa 0,0 l/m 0 min 2 min 0 W/m 73,2 km/h (8 Bft) 97,87 %
08.02.2016 22:44 8,0 C 8,3 C 5,6 C 78 % 0 lf 994,5 hPa 0,0 l/m 0 min 2 min 0 W/m 54,4 km/h (7 Bft) 95,65 %
08.02.2016 22:46 7,9 C 8,3 C 5,6 C 78 % 0 lf 994,5 hPa 0,0 l/m 0 min 0 min 0 W/m 56,5 km/h (7 Bft) 93,62 %
08.02.2016 22:48 8,0 C 8,3 C 5,6 C 78 % 0 lf 994,5 hPa 0,0 l/m 0 min 0 min 0 W/m 52,3 km/h (7 Bft) 95,74 %
08.02.2016 22:50 8,0 C 8,3 C 5,6 C 78 % 0 lf 994,4 hPa 0,0 l/m 0 min 0 min 0 W/m 60,7 km/h (7 Bft) 95,74 %
08.02.2016 22:52 8,0 C 8,3 C 5,6 C 78 % 0 lf 994,4 hPa 0,0 l/m 0 min 0 min 0 W/m 43,9 km/h (6 Bft) 97,87 %
08.02.2016 22:54 8,0 C 8,3 C 5,6 C 78 % 0 lf 994,5 hPa 0,0 l/m 0 min 0 min 0 W/m 52,3 km/h (7 Bft) 93,62 %
08.02.2016 22:56 8,1 C 8,3 C 5,6 C 77 % 0 lf 994,7 hPa 0,0 l/m 0 min 0 min 0 W/m 66,9 km/h (8 Bft) 97,83 %
08.02.2016 22:58 8,1 C 8,3 C 5,6 C 77 % 0 lf 994,6 hPa 0,0 l/m 0 min 0 min 0 W/m 64,9 km/h (8 Bft) 97,87 %
08.02.2016 23:00 8,1 C 8,3 C 5,6 C 77 % 0 lf 994,6 hPa 0,0 l/m 0 min 0 min 0 W/m 48,1 km/h (6 Bft) 97,87 %
08.02.2016 23:02 8,1 C 8,3 C 5,6 C 77 % 0 lf 994,6 hPa 0,0 l/m 0 min 0 min 0 W/m 48,1 km/h (6 Bft) 97,87 %
08.02.2016 23:04 8,1 C 8,3 C 5,6 C 77 % 2 lf 994,7 hPa 0,0 l/m 0 min 2 min 0 W/m 54,4 km/h (7 Bft) 100,00 %
08.02.2016 23:06 8,1 C 8,3 C 5,6 C 77 % 0 lf 994,6 hPa 0,0 l/m 0 min 0 min 0 W/m 46,0 km/h (6 Bft) 97,87 %
08.02.2016 23:08 8,1 C 8,3 C 5,6 C 77 % 0 lf 995,1 hPa 0,0 l/m 0 min 0 min 0 W/m 83,7 km/h (9 Bft) 93,48 %
08.02.2016 23:10 8,1 C 8,3 C 5,6 C 76 % 0 lf 994,6 hPa 0,0 l/m 0 min 0 min 0 W/m 56,5 km/h (7 Bft) 100,00 %
08.02.2016 23:12 8,1 C 8,3 C 5,6 C 76 % 0 lf 994,7 hPa 0,0 l/m 0 min 0 min 0 W/m 48,1 km/h (6 Bft) 98,15 %
08.02.2016 23:14 8,1 C 8,3 C 5,6 C 76 % 0 lf 994,8 hPa 0,0 l/m 0 min 0 min 0 W/m 66,9 km/h (8 Bft) 100,00 %
08.02.2016 23:16 8,1 C 8,3 C 5,6 C 76 % 0 lf 994,6 hPa 0,0 l/m 0 min 0 min 0 W/m 64,9 km/h (8 Bft) 100,00 %
08.02.2016 23:18 8,1 C 8,3 C 5,6 C 76 % 0 lf 994,8 hPa 0,0 l/m 0 min 0 min 0 W/m 62,8 km/h (8 Bft) 97,83 %
08.02.2016 23:20 8,1 C 8,3 C 5,6 C 76 % 0 lf 994,9 hPa 0,0 l/m 0 min 0 min 0 W/m 64,9 km/h (8 Bft) 100,00 %
08.02.2016 23:22 8,1 C 8,3 C 5,6 C 76 % 0 lf 994,9 hPa 0,0 l/m 0 min 0 min 0 W/m 56,5 km/h (7 Bft) 97,87 %
08.02.2016 23:24 8,1 C 8,3 C 6,1 C 76 % 0 lf 995,0 hPa 0,0 l/m 0 min 0 min 0 W/m 54,4 km/h (7 Bft) 97,87 %
08.02.2016 23:26 8,1 C 8,3 C 6,1 C 75 % 0 lf 995,0 hPa 0,0 l/m 0 min 0 min 0 W/m 69,0 km/h (8 Bft) 95,74 %
08.02.2016 23:28 8,1 C 8,3 C 6,1 C 76 % 0 lf 995,1 hPa 0,0 l/m 0 min 0 min 0 W/m 73,2 km/h (8 Bft) 95,74 %
08.02.2016 23:30 8,1 C 8,3 C 6,1 C 75 % 0 lf 995,1 hPa 0,0 l/m 0 min 0 min 0 W/m 48,1 km/h (6 Bft) 97,83 %
08.02.2016 23:32 8,2 C 8,3 C 6,7 C 75 % 0 lf 995,1 hPa 0,0 l/m 0 min 0 min 0 W/m 58,6 km/h (7 Bft) 95,83 %
08.02.2016 23:34 8,1 C 8,3 C 6,7 C 75 % 0 lf 995,0 hPa 0,0 l/m 0 min 0 min 0 W/m 64,9 km/h (8 Bft) 95,74 %
08.02.2016 23:36 8,2 C 8,3 C 6,7 C 75 % 0 lf 994,9 hPa 0,0 l/m 0 min 0 min 0 W/m 66,9 km/h (8 Bft) 97,37 %
08.02.2016 23:38 8,2 C 8,3 C 6,7 C 75 % 0 lf 995,0 hPa 0,0 l/m 0 min 0 min 0 W/m 54,4 km/h (7 Bft) 97,87 %
08.02.2016 23:40 8,2 C 8,3 C 6,1 C 75 % 0 lf 995,2 hPa 0,0 l/m 0 min 0 min 0 W/m 60,7 km/h (7 Bft) 97,87 %
08.02.2016 23:42 8,2 C 8,3 C 6,1 C 75 % 0 lf 995,1 hPa 0,0 l/m 0 min 0 min 0 W/m 50,2 km/h (7 Bft) 97,87 %
08.02.2016 23:44 8,1 C 8,3 C 6,1 C 75 % 0 lf 995,3 hPa 0,0 l/m 0 min 0 min 0 W/m 52,3 km/h (7 Bft) 93,48 %
08.02.2016 23:46 8,1 C 8,3 C 6,1 C 76 % 0 lf 995,3 hPa 0,0 l/m 0 min 0 min 0 W/m 54,4 km/h (7 Bft) 97,87 %
08.02.2016 23:48 8,1 C 8,3 C 6,1 C 75 % 0 lf 995,4 hPa 0,0 l/m 0 min 0 min 0 W/m 56,5 km/h (7 Bft) 95,74 %
08.02.2016 23:50 8,1 C 8,3 C 6,7 C 76 % 0 lf 995,4 hPa 0,0 l/m 0 min 0 min 0 W/m 54,4 km/h (7 Bft) 95,74 %
08.02.2016 23:52 8,1 C 8,3 C 6,7 C 76 % 0 lf 995,5 hPa 0,0 l/m 0 min 0 min 0 W/m 79,5 km/h (9 Bft) 97,87 %
08.02.2016 23:54 8,1 C 8,3 C 6,1 C 76 % 0 lf 995,5 hPa 0,0 l/m 0 min 0 min 0 W/m 64,9 km/h (8 Bft) 97,87 %
08.02.2016 23:56 8,1 C 8,3 C 6,1 C 76 % 0 lf 995,4 hPa 0,0 l/m 0 min 0 min 0 W/m 54,4 km/h (7 Bft) 97,83 %
08.02.2016 23:58 8,1 C 8,3 C 6,1 C 76 % 0 lf 995,4 hPa 0,0 l/m 0 min 0 min 0 W/m 60,7 km/h (7 Bft) 95,74 %
_ Min-Zeit 13:14 13:00 15:04 14:54 00:00 12:26 - - - - 01:06 03:24
Minimum _ 6,7 C 5,0 C 2,8 C 73 % 0 lf 989,7 hPa - - - - 18,8 km/h (3 Bft) 85,71 %
_ Max-Zeit 12:44 14:34 12:08 06:04 05:14 00:00 12:56 10:16 02:02 14:34 20:38 01:34
Maximum _ 9,9 C 13,3 C 9,4 C 92 % 15 lf 999,9 hPa 0,4 l/m 2 min 2 min 394 W/m 90,0 km/h
SW (10 Bft)
100,00 %
Durchschnitt _ 8,2 C 8,2 C 6,1 C 82 % 6 lf 992,7 hPa #7,4 l/m #2:22 h #10:30 h 112 W/m 43,7 km/h (6 Bft) 96,09 %
© 2016 W. Hausmann